EncompDEV
CodeWizard

Download Field Explorer Pro and search all Standard, Virtual, Custom and RDB Fields in your Encompass

Search Fields in containing Field Changes
Your Field Search History
Time Search Version Fields
11/14/2018 05:24 amo 18.4 4,290
Global Field Search History
Time Search Version Fields
11/14/2018 05:24 amo 18.4 4,290
11/14/2018 05:24 342 18.4 47
11/14/2018 05:24 Borrower N 18.4 1,826
11/14/2018 05:24 HUD1 Borr 18.4 65
11/14/2018 05:24 3331 18.4 2
11/14/2018 05:24 3265 18.4 2
11/14/2018 05:24 es 18.4 14,856
11/14/2018 05:24 326 18.4 50
11/14/2018 05:24 itemization 18.4 108
11/14/2018 05:24 324 18.4 62
11/14/2018 05:24 servici 18.4 350
11/14/2018 05:24 737 18.4 32
11/14/2018 05:24 323 18.4 30
11/14/2018 05:24 GSEVENDOR.X24 18.4 1
11/14/2018 05:23 income verification 18.4 5
11/14/2018 05:23 3197 18.4 2
11/14/2018 05:23 907 18.4 77
11/14/2018 05:23 concession 18.4 113
11/14/2018 05:23 1205 18.4 47
11/14/2018 05:23 3192 18.4 2
11/14/2018 05:23 3170 18.4 2
11/14/2018 05:23 3166 18.4 3
11/14/2018 05:23 3164 18.4 3
11/14/2018 05:23 3152 18.4 2
11/14/2018 05:23 689 18.4 35
11/14/2018 05:23 3086 18.4 2
11/14/2018 05:23 300 18.4 130
11/14/2018 05:22 2998 18.4 2
11/14/2018 05:22 2997 18.4 2
11/14/2018 05:22 299 18.4 42
11/14/2018 05:22 2978 18.4 1
11/14/2018 05:22 HMDA.X11 18.4 4
11/14/2018 05:22 296 18.4 139
11/14/2018 05:22 981 18.4 11
11/14/2018 05:22 290 18.4 208
11/14/2018 05:22 2860 18.4 2
11/14/2018 05:22 2288 18.4 13
11/14/2018 05:22 indicator 18.4 681
11/14/2018 05:21 2827 18.4 2
11/14/2018 05:21 396 18.4 62
11/14/2018 05:21 2824 18.4 2
11/14/2018 05:21 Inte 18.4 588
11/14/2018 05:21 date of birth 18.4 2
11/14/2018 05:21 2553 18.4 1
11/14/2018 05:21 data template 18.4 1
11/14/2018 05:21 buyer's 18.4 23
11/14/2018 05:21 2400 18.4 2
11/14/2018 05:21 pu 18.4 315
11/14/2018 05:20 24 18.4 1,830
11/14/2018 05:20 AUS 18.4 513
11/14/2018 05:20 228 18.4 160
11/14/2018 05:20 22 18.4 1,684
11/14/2018 05:20 Hispanic or Latino 18.4 8
11/14/2018 05:20 204 18.4 95
11/14/2018 05:20 SYS. 18.4 550
11/14/2018 05:20 Q 18.4 8,139
11/14/2018 05:20 203K ltv 18.4 3
11/14/2018 05:20 HMDA.X7 18.4 10
11/14/2018 05:20 Price Lock 18.4 5,213
11/14/2018 05:20 Fin 18.4 797
11/14/2018 05:20 1880 18.4 2
11/14/2018 05:20 4075 18.4 2
11/14/2018 05:20 funding fee 18.4 145
11/14/2018 05:19 188 18.4 48
11/14/2018 05:19 FL0011 18.4 1
11/14/2018 05:19 1855 18.4 1
11/14/2018 05:19 employee state 18.4 6
11/14/2018 05:19 1766 18.4 2
11/14/2018 05:19 172 18.4 74
11/14/2018 05:19 1707 18.4 3
11/14/2018 05:19 qualified 18.4 81
11/14/2018 05:19 1677 18.4 3
11/14/2018 05:19 166 18.4 64
11/14/2018 05:19 1620 18.4 3
11/14/2018 05:19 3297 18.4 2
11/14/2018 05:18 162 18.4 63
11/14/2018 05:18 1619 18.4 2
11/14/2018 05:18 16 18.4 1,584
11/14/2018 05:18 third 18.4 47
11/14/2018 05:18 Arm type 18.4 21
11/14/2018 05:18 155 18.4 59
11/14/2018 05:18 cas 18.4 227
11/14/2018 05:18 1533 18.4 3
11/14/2018 05:18 1523 18.4 3
11/14/2018 05:18 150 18.4 90
11/14/2018 05:18 18 18.4 1,362
11/14/2018 05:18 HMDA.X28 18.4 1
11/14/2018 05:18 1490 18.4 4
11/14/2018 05:17 1415 18.4 15
11/14/2018 05:17 Credit Report 18.4 55
11/14/2018 05:17 1414 18.4 15
11/14/2018 05:17 85 18.4 381
11/14/2018 05:17 1412 18.4 3
11/14/2018 05:17 1240 18.4 3
11/14/2018 05:17 inc 18.4 970
11/14/2018 05:17 141 18.4 100
11/14/2018 05:17 1407 18.4 3
11/14/2018 05:17 1389 18.4 3
11/14/2018 05:17 Reserves 18.4 26
11/14/2018 05:17 1245 18.4 3
11/14/2018 05:17 AUS.X2 18.4 22
11/14/2018 05:17 1199 18.4 4
11/14/2018 05:17 1176 18.4 3
11/14/2018 05:16 1172 18.4 18
11/14/2018 05:16 recommen 18.4 9
11/14/2018 05:16 1102 18.4 316
11/14/2018 05:16 1101b 18.4 42
11/14/2018 05:16 110 18.4 973
11/14/2018 05:16 evalua 18.4 28
11/14/2018 05:16 1069 18.4 4
11/14/2018 05:16 confi 18.4 977
11/14/2018 05:16 1066 18.4 5
11/14/2018 05:16 4091 18.4 2
11/14/2018 05:16 1059 18.4 5
11/14/2018 05:16 1041 18.4 16
11/14/2018 05:15 1039 18.4 5
11/14/2018 05:15 1003 18.4 74
11/14/2018 05:15 100 18.4 604
11/14/2018 05:15 10 18.4 3,823
11/14/2018 05:15 newhud.x217 18.4 2
11/14/2018 05:15 per 18.4 1,247
11/14/2018 05:15 1 18.4 19,692
11/14/2018 05:15 07 18.4 671
11/14/2018 05:15 051 18.4 17
11/14/2018 05:15 investor delivery dat 18.4 13
11/14/2018 05:15 0212 18.4 1
11/14/2018 05:15 0204 18.4 2
11/14/2018 05:14 0116 18.4 2
11/14/2018 05:14 loan t 18.4 1,769
11/14/2018 05:14 (Previous 4) 18.4 6
11/14/2018 05:14 (Previou 18.4 5,954
11/14/2018 05:14 (Previo 18.4 5,954
11/14/2018 05:14 (Prev 18.4 5,954
11/14/2018 05:14 NMLS.x11 18.4 1
11/14/2018 05:14 unit number 18.4 2
11/14/2018 05:14 Trans 18.4 724
11/14/2018 05:14 origination poi 18.4 25
11/14/2018 05:14 1960 18.4 2
11/14/2018 05:14 615 18.4 12
11/14/2018 05:13 sys 18.4 556
11/14/2018 05:13 HMDA Loan Purpose 18.4 1
11/14/2018 05:13 lende 18.4 985
11/14/2018 05:13 AUSf.x1 18.4 11
11/14/2018 05:12 1206 18.4 51
11/14/2018 05:12 841 18.4 32
11/14/2018 05:12 ext 18.4 1,328
11/14/2018 05:12 601 18.4 13
11/14/2018 05:12 2626 18.4 2
11/14/2018 05:12 317 18.4 77
11/14/2018 05:12 preliminary 18.4 48
11/14/2018 05:11 mornet.x40 18.4 1
11/14/2018 05:11 Vietnamese 18.4 2
11/14/2018 05:11 Borrower Can Demonstrate 18.4 24
11/14/2018 05:11 ext 18.4 1,325
11/14/2018 05:10 Mavent Compliance 18.4 18
11/14/2018 05:10 du refi 18.4 3
11/14/2018 05:10 Fee Details - Line 801g 18.4 28
11/14/2018 05:10 Correspondent Loan 18.4 52
11/14/2018 05:09 expla 18.4 24
11/14/2018 05:09 LE1.X24 18.4 1
11/14/2018 05:09 borr name 18.4 121
11/14/2018 05:09 323 18.4 30
11/14/2018 05:09 cap 18.4 102
11/14/2018 05:09 de 18.4 17,909
11/14/2018 05:09 existing 18.4 92
11/14/2018 05:08 military 18.4 78
11/14/2018 05:08 fe0115 18.4 12
11/14/2018 05:08 Sales rep 18.4 4
11/14/2018 05:08 flood 18.4 109
11/14/2018 05:07 fee 18.4 7,001
11/14/2018 05:07 closing.ntendrs 18.4 28
11/14/2018 05:07 cd1.x18 18.4 1
11/14/2018 05:07 native ha 18.4 4
11/14/2018 05:06 L 18.4 31,538
11/14/2018 05:06 File contact Underwriter cont 18.4 30
11/14/2018 05:06 Ne 18.4 9,569
11/14/2018 05:06 builder 18.4 29
11/14/2018 05:05 final cd 18.4 26
11/14/2018 05:05 team phone 18.4 2
11/14/2018 05:05 services 18.4 32
11/14/2018 05:05 hmda.x26 18.4 1
11/14/2018 05:05 ULDD.X142 18.4 1
11/14/2018 05:05 newhud2.x3335 18.4 1
11/14/2018 05:05 Borr resid 18.4 69
11/14/2018 05:04 1114 18.4 57
11/14/2018 05:04 NEWHUD.X128 18.4 11
11/14/2018 05:04 fees 18.4 1,840
11/14/2018 05:04 primary 18.4 8
11/14/2018 05:03 milestone 18.4 34
11/14/2018 05:03 2400 18.4 2
11/14/2018 05:03 2000 18.4 3
11/14/2018 05:03 Lender Nam 18.4 37
11/14/2018 05:03 proposed maturity 18.4 2
11/14/2018 05:03 763 18.4 44
11/14/2018 05:03 proposed maturity 18.4 2
11/14/2018 05:03 contract 18.4 70
11/14/2018 05:03 reason 18.4 74
11/14/2018 05:03 present housing 18.4 11
11/14/2018 05:02 Survey 18.4 45
11/14/2018 05:02 hire date 18.4 2
11/14/2018 05:02 Refinance 18.4 71
11/14/2018 05:02 source 18.4 40
11/14/2018 05:02 closing disclosure date 18.4 157
11/14/2018 05:02 4179 18.4 2
11/14/2018 05:01 Trans Details Down 18.4 2
11/14/2018 05:01 143 18.4 71
11/14/2018 05:01 empir 18.4 172
11/14/2018 05:01 lender name 18.4 37
11/14/2018 05:00 Construction loa 18.4 12
11/14/2018 05:00 3985 18.4 2
11/14/2018 05:00 borrower pair 18.4 37
11/14/2018 05:00 eXPLAIN 18.4 5
11/14/2018 04:59 804 18.4 69
11/14/2018 04:59 4 18.4 12,928
11/14/2018 04:59 MI 18.4 1,158
11/14/2018 04:59 hmda.x52 18.4 1
11/14/2018 04:59 lender identifier 18.4 4
11/14/2018 04:59 Vend 18.4 1,015
11/14/2018 04:59 Commitment 18.4 151
11/14/2018 04:58 LE2.XSTD 18.4 2
11/14/2018 04:58 regz 18.4 275
11/14/2018 04:58 HMDA.x14 18.4 1
11/14/2018 04:58 aus du 18.4 6
11/14/2018 04:58 EDISCLOSED2015TRK.EDISCLOSUREB 18.4 1
11/14/2018 04:57 VASUMM.X2 18.4 22
11/14/2018 04:57 972 18.4 11
11/14/2018 04:57 course 18.4 4
11/14/2018 04:57 loan tea 18.4 14
11/14/2018 04:57 Te 18.4 16,598
11/14/2018 04:57 FE0115 18.4 12
11/14/2018 04:56 up 18.4 249
11/14/2018 04:56 fl 18.4 281
11/14/2018 04:56 desc 18.4 4,615
11/14/2018 04:56 L 18.4 28,711
11/14/2018 04:56 lock rate 18.4 13,604
11/14/2018 04:56 purpose 18.4 52
11/14/2018 04:56 Qualified mortgage loan type 18.4 1
11/14/2018 04:56 HMDA.X34 18.4 1
11/14/2018 04:56 1204 18.4 47
11/14/2018 04:55 hom 18.4 206
11/14/2018 04:55 sponsor id 18.4 7
11/14/2018 04:55 203k 18.4 121
11/14/2018 04:55 OR 18.4 8,735
11/14/2018 04:55 see 18.4 20
11/14/2018 04:55 4198 18.4 1
11/14/2018 04:55 l182 18.4 1
11/14/2018 04:55 closing.nt 18.4 66
11/14/2018 04:55 current 18.4 228
11/14/2018 04:55 fees interest fro 18.4 2
11/14/2018 04:55 Withdrawal Request 18.4 1
11/14/2018 04:55 Note Da 18.4 16
11/14/2018 04:55 936 18.4 22
11/14/2018 04:55 construction 18.4 88
11/14/2018 04:55 Recording 18.4 31
11/14/2018 04:55 3540 18.4 2
11/14/2018 04:55 ST License ID 18.4 18
11/14/2018 04:54 confirmed 18.4 976
11/14/2018 04:54 fully amortize 18.4 2
11/14/2018 04:54 execut 18.4 34
11/14/2018 04:54 disclosure.x95 18.4 11
11/14/2018 04:54 conversion 18.4 7
11/14/2018 04:54 Automated 18.4 4
11/14/2018 04:54 Holdba 18.4 2
11/14/2018 04:54 3039 18.4 2
11/14/2018 04:54 1524 18.4 4
11/14/2018 04:54 qm.x2 18.4 111
11/14/2018 04:54 interview date 18.4 1
11/14/2018 04:54 appraisal revie 18.4 5
11/14/2018 04:54 qm.x2 18.4 111
11/14/2018 04:54 period 18.4 92
11/14/2018 04:54 ae 18.4 734
11/14/2018 04:54 period 18.4 92
11/14/2018 04:53 MIP REFUND 18.4 1
11/14/2018 04:53 page 4 18.4 181
11/14/2018 04:53 orgID 18.4 1
11/14/2018 04:53 of 18.4 1,497
11/14/2018 04:53 license review 18.4 1
11/14/2018 04:53 l245 18.4 2
11/14/2018 04:53 transaction fees 18.4 2
11/14/2018 04:53 interest 18.4 292
11/14/2018 04:53 payment coupon 18.4 98
11/14/2018 04:53 interest 18.4 292
11/14/2018 04:53 pay date 18.4 130
11/14/2018 04:53 has 18.4 300
11/14/2018 04:53 Borrower id 18.4 467
11/14/2018 04:53 has 18.4 300
11/14/2018 04:53 4151 18.4 2
11/14/2018 04:53 fm 18.4 216
11/14/2018 04:53 est c 18.4 8,171
11/14/2018 04:53 ms.status 18.4 3
11/14/2018 04:53 lock (pre 18.4 6,770
11/14/2018 04:53 est c 18.4 8,171
11/14/2018 04:53 discount points 18.4 15
11/14/2018 04:53 cb 18.4 84
11/14/2018 04:53 act 18.4 1,396
11/14/2018 04:53 discount points 18.4 15
11/14/2018 04:53 nmls.x3 18.4 1
11/14/2018 04:53 bank 18.4 61
11/14/2018 04:53 automob 18.4 7
11/14/2018 04:53 Inte 18.4 574
11/14/2018 04:53 OR ID 18.4 1,887
11/14/2018 04:53 book 18.4 10
11/14/2018 04:53 OR ID 18.4 1,887
11/14/2018 04:53 Negative Amortization 18.4 15
11/14/2018 04:53 applicatio date 18.4 12
11/14/2018 04:53 Negative Amortization 18.4 15
11/14/2018 04:53 NE 18.4 9,425
11/14/2018 04:53 Loan Amo 18.4 357
11/14/2018 04:53 NE 18.4 9,425
11/14/2018 04:53 IR0005 18.4 1
11/14/2018 04:53 HPML 18.4 7
11/14/2018 04:53 FR0108 18.4 1
11/14/2018 04:53 AUSTRACKING 18.4 192
11/14/2018 04:53 370 18.4 142
11/14/2018 04:52 337 18.4 134
11/14/2018 04:52 3246 18.4 2
11/14/2018 04:52 1530 18.4 4
11/14/2018 04:52 0102 18.4 2
11/14/2018 04:52 servicing 18.4 350
11/14/2018 04:52 serv 18.4 950
11/14/2018 04:52 referral 18.4 6
11/14/2018 04:52 purchase advice 18.4 187
11/14/2018 04:52 pro 18.4 1,988
11/14/2018 04:52 other borrower 18.4 13
11/14/2018 04:52 org 18.4 82
11/14/2018 04:52 880 18.4 21
11/14/2018 04:52 org 18.4 82
11/14/2018 04:52 new loan 18.4 26
11/14/2018 04:52 lockrate.2287 18.4 1
11/14/2018 04:52 new 18.4 5,805
11/14/2018 04:52 DI 18.4 5,721
11/14/2018 04:52 loan nu 18.4 32
11/14/2018 04:52 condo 18.4 18
11/14/2018 04:52 COREMILESTONE 18.4 1
11/14/2018 04:52 borr 18.4 3,376
11/14/2018 04:52 arm type 18.4 21
11/14/2018 04:52 country 18.4 3
11/14/2018 04:52 ULDD.GNM.MrtggPrgrmType 18.4 1
11/14/2018 04:52 Subject indicator 18.4 6
11/14/2018 04:52 history 18.4 70
11/14/2018 04:52 Service F 18.4 180
11/14/2018 04:52 Security Inst 18.4 24
11/14/2018 04:52 Secti 18.4 819
11/14/2018 04:52 QM.x 18.4 372
11/14/2018 04:51 last cd 18.4 6
11/14/2018 04:51 zip 18.4 270
11/14/2018 04:51 Purchase A 18.4 257
11/14/2018 04:51 Previous 18.4 6,059
11/14/2018 04:51 ULDD.X188 18.4 1
11/14/2018 04:51 Organization 18.4 42
11/14/2018 04:51 years 18.4 56
11/14/2018 04:51 No 18.4 1,013
11/14/2018 04:51 Middle 18.4 4
11/14/2018 04:51 MORNET.X71 18.4 1
11/14/2018 04:51 MIP fund 18.4 2
11/14/2018 04:51 LE2. 18.4 53
11/14/2018 04:51 L358 18.4 1
11/14/2018 04:51 x133 18.4 38
11/14/2018 04:51 HMDA ex 18.4 1
11/14/2018 04:51 DISCLOSURE.X459 18.4 1
11/14/2018 04:51 DENIAL.X6 18.4 10
11/14/2018 04:51 DENIAL.X3 18.4 10
11/14/2018 04:51 x13 18.4 423
11/14/2018 04:51 DENIAL.X3 18.4 10
11/14/2018 04:51 DENIAL. 18.4 72
11/14/2018 04:51 reference 18.4 18
11/14/2018 04:51 DENIAL. 18.4 72
11/14/2018 04:51 Assum 18.4 33
11/14/2018 04:51 waiver 18.4 2
11/14/2018 04:51 369 18.4 153
11/14/2018 04:51 357 18.4 32
11/14/2018 04:51 2984 18.4 2
11/14/2018 04:51 2568 18.4 2
11/14/2018 04:51 S 18.4 29,651
11/14/2018 04:51 trustee 18.4 81
11/14/2018 04:51 represen 18.4 13
11/14/2018 04:51 party type 18.4 7
11/14/2018 04:51 negati 18.4 22
11/14/2018 04:51 mor 18.4 1,588
11/14/2018 04:51 waived 18.4 29
11/14/2018 04:51 mc 18.4 65
11/14/2018 04:50 manageme 18.4 362
11/14/2018 04:50 gro 18.4 39
11/14/2018 04:50 closing cost 18.4 122
11/14/2018 04:50 funding d 18.4 345
11/14/2018 04:50 verbal 18.4 1
11/14/2018 04:50 flood cert 18.4 12
11/14/2018 04:50 bor 18.4 3,522
11/14/2018 04:50 vend.x677 18.4 1
11/14/2018 04:50 bor 18.4 3,522
11/14/2018 04:50 loan officer 18.4 159
11/14/2018 04:50 bond program 18.4 2
11/14/2018 04:50 vend.x500 18.4 1
11/14/2018 04:50 1767 18.4 2
11/14/2018 04:50 acre 18.4 2
11/14/2018 04:50 constru 18.4 111
11/14/2018 04:50 acre 18.4 2
11/14/2018 04:50 Trans Details Est Closing 18.4 14
11/14/2018 04:50 SUBJECT PROPERTY TITLE NAME 18.4 2
11/14/2018 04:50 annual mi 18.4 9
11/14/2018 04:50 X 18.4 16,795
11/14/2018 04:50 SUBJECT PROPERTY TITLE NAME 18.4 2
11/14/2018 04:50 S 18.4 29,651
11/14/2018 04:50 ein 18.4 27
11/14/2018 04:50 vend.x140 18.4 1
11/14/2018 04:50 months ON JOB 18.4 2
11/14/2018 04:50 File conta 18.4 978
11/14/2018 04:50 File cont 18.4 978
11/14/2018 04:50 3453 18.4 2
11/14/2018 04:50 mca 18.4 63
11/14/2018 04:50 280 18.4 157
11/14/2018 04:50 va funding fee 18.4 6
11/14/2018 04:50 280 18.4 157
11/14/2018 04:50 (Previo 18.4 5,954
11/14/2018 04:50 vetera 18.4 51
11/14/2018 04:50 sur 18.4 2,639
11/14/2018 04:50 va f 18.4 412
11/14/2018 04:50 sur 18.4 2,639
11/14/2018 04:50 si 18.4 8,575
11/14/2018 04:50 ne 18.4 9,279
11/14/2018 04:50 CUST 18.4 200
11/14/2018 04:50 ne 18.4 9,279
11/14/2018 04:50 va case 18.4 1
11/14/2018 04:50 ms.st 18.4 5
11/14/2018 04:50 party 18.4 91
11/14/2018 04:50 cd req 18.4 1
11/14/2018 04:50 seco 18.4 38
11/14/2018 04:50 cd 18.4 1,234
11/14/2018 04:50 case 18.4 21
11/14/2018 04:50 v 18.4 10,722
11/14/2018 04:49 cd 18.4 1,234
11/14/2018 04:49 bir 18.4 1
11/14/2018 04:49 MI 18.4 1,160
11/14/2018 04:49 service. 18.4 148
11/14/2018 04:49 NEWH 18.4 5,705
11/14/2018 04:49 Monthly 18.4 188
11/14/2018 04:49 FM0020 18.4 1
11/14/2018 04:49 rental income 18.4 7
11/14/2018 04:49 FHA case 18.4 4
11/14/2018 04:49 govt 18.4 22
11/14/2018 04:49 DEED 18.4 12
11/14/2018 04:49 Casasrn.x107 18.4 1
11/14/2018 04:49 uw 18.4 22
11/14/2018 04:49 3000 18.4 2
11/14/2018 04:49 special f 18.4 11
11/14/2018 04:49 edisclos 18.4 47
11/14/2018 04:49 Warranty 18.4 6
11/14/2018 04:49 Subordinat 18.4 58
11/14/2018 04:49 userid 18.4 4
11/14/2018 04:49 first pay dat 18.4 6
11/14/2018 04:49 declaration l 18.4 32
11/14/2018 04:49 40 18.4 886
11/14/2018 04:49 use 18.4 516
11/14/2018 04:49 last 18.4 496
11/14/2018 04:49 1883 18.4 1
11/14/2018 04:49 descript 18.4 383
11/14/2018 04:49 last 18.4 496
11/14/2018 04:49 AUStracking 18.4 192
11/14/2018 04:49 UWC. 18.4 29
11/14/2018 04:49 MORTGAGE PR 18.4 189
11/14/2018 04:49 Post closing 18.4 57
11/14/2018 04:49 usda 18.4 224
11/14/2018 04:49 Post closing 18.4 57
11/14/2018 04:49 FULFille 18.4 39
11/14/2018 04:49 file ID 18.4 16
11/14/2018 04:49 2592 18.4 12
11/14/2018 04:49 upfont 18.4 12
11/14/2018 04:49 2592 18.4 12
11/14/2018 04:49 disclosure. 18.4 1,186
11/14/2018 04:49 units 18.4 30
11/14/2018 04:48 4197 18.4 2
11/14/2018 04:48 unit 18.4 52
11/14/2018 04:48 underwriting 18.4 193
11/14/2018 04:48 FV.X347 18.4 1
11/14/2018 04:48 underwriter email 18.4 2
11/14/2018 04:48 under 18.4 278
11/14/2018 04:48 uldd.x28 18.4 1
11/14/2018 04:48 payment date 18.4 100
11/14/2018 04:48 uldd.x187 18.4 1
11/14/2018 04:48 uldd.x171 18.4 1
11/14/2018 04:48 loan originator ID 18.4 3
11/14/2018 04:47 uldd - Investor feature id 18.4 3
11/14/2018 04:47 disclosure.x104 18.4 11
11/14/2018 04:47 2626 18.4 2
11/14/2018 04:47 uldd - Investor 18.4 14
11/14/2018 04:47 1399 18.4 3
11/14/2018 04:47 uldd - I 18.4 137
11/14/2018 04:47 coverage 18.4 12
11/14/2018 04:47 uldd 18.4 298
11/14/2018 04:47 FHA 203k B11 18.4 1
11/14/2018 04:47 ufmip 18.4 8
11/14/2018 04:47 u 18.4 25,683
11/14/2018 04:47 type 18.4 911
11/14/2018 04:46 ty 18.4 2,384
11/14/2018 04:46 verification 18.4 16
11/14/2018 04:46 included 18.4 17
11/14/2018 04:46 trans details 18.4 421
11/14/2018 04:46 Unpaid Principal Bal 18.4 8
11/14/2018 04:46 trade 18.4 19
11/14/2018 04:46 tim 18.4 536
11/14/2018 04:46 tr 18.4 2,453
11/14/2018 04:46 tql 18.4 125
11/14/2018 04:46 title 18.4 333
11/14/2018 04:46 til initial 18.4 3
11/14/2018 04:46 loan originato 18.4 10
11/14/2018 04:46 Loa 18.4 1,901
11/14/2018 04:46 til init 18.4 3
11/14/2018 04:45 test 18.4 55
11/14/2018 04:45 REQUEST.X10 18.4 1
11/14/2018 04:45 wh 18.4 5,854
11/14/2018 04:45 termination 18.4 12
11/14/2018 04:45 rec 18.4 6,295
11/14/2018 04:45 temporary buydown 18.4 3
11/14/2018 04:45 3032 18.4 2
11/14/2018 04:45 ssa 18.4 98
11/14/2018 04:45 re 18.4 20,414
11/14/2018 04:45 temporary b 18.4 3
11/14/2018 04:45 rate s 18.4 13,918
11/14/2018 04:45 Use Actual Down Payment & Closing Costs Financed 18.4 1
11/14/2018 04:45 team 18.4 12
11/14/2018 04:45 price 18.4 5,250
11/14/2018 04:45 mic 18.4 3
11/14/2018 04:45 taxes 18.4 59
11/14/2018 04:45 personal 18.4 23
11/14/2018 04:45 pri 18.4 5,555
11/14/2018 04:45 tax 18.4 299
11/14/2018 04:45 previous 18.4 7,061
11/14/2018 04:45 newh 18.4 5,803
11/14/2018 04:45 18 18.4 1,350
11/14/2018 04:45 fullfi 18.4 2
11/14/2018 04:45 new h 18.4 5,845
11/14/2018 04:44 mo 18.4 11,444
11/14/2018 04:44 m 18.4 24,251
11/14/2018 04:44 target 18.4 13
11/14/2018 04:44 reference 18.4 18
11/14/2018 04:44 lockrate. 18.4 4,531
11/14/2018 04:44 NEWHUD2. 18.4 3,978
11/14/2018 04:44 table 18.4 63
11/14/2018 04:44 lockrate 18.4 12,421
11/14/2018 04:44 Lock St 18.4 13,013
11/14/2018 04:44 borr name 18.4 125
11/14/2018 04:44 lock rate 18.4 13,604
11/14/2018 04:44 LOCKRAT 18.4 12,421
11/14/2018 04:44 lock price 18.4 5,213
11/14/2018 04:44 Fee Li 18.4 6,022
11/14/2018 04:44 it 18.4 4,463
11/14/2018 04:44 Fee 18.4 8,153
11/14/2018 04:44 f 18.4 17,026
11/14/2018 04:44 vi 18.4 8,253
11/14/2018 04:44 did 18.4 147
11/14/2018 04:44 VASUMM.X22 18.4 1
11/14/2018 04:44 es 18.4 16,824
11/14/2018 04:44 su 18.4 3,914
11/14/2018 04:44 res 18.4 1,274
11/14/2018 04:44 en 18.4 16,787
11/14/2018 04:44 poc 18.4 1,381
11/14/2018 04:44 book 18.4 10
11/14/2018 04:44 modifi 18.4 20
11/14/2018 04:44 Base Loan Amount 18.4 11
11/14/2018 04:44 disc 18.4 2,948
11/14/2018 04:44 di 18.4 6,011
11/14/2018 04:44 newhud2.x 18.4 3,978
11/14/2018 04:44 d 18.4 30,763
11/14/2018 04:44 newhu 18.4 5,803
11/14/2018 04:44 1848 18.4 1
11/14/2018 04:43 lock request 18.4 8,041
11/14/2018 04:43 nam 18.4 1,080
11/14/2018 04:43 amount 18.4 4,153
11/14/2018 04:43 refinance type 18.4 6
11/14/2018 04:43 lock ex 18.4 1,410
11/14/2018 04:43 adjustment 18.4 5,419
11/14/2018 04:43 t 18.4 29,417
11/14/2018 04:43 line 18.4 7,407
11/14/2018 04:43 HMDA.X11 18.4 1
11/14/2018 04:43 Amount 18.4 4,036
11/14/2018 04:43 em 18.4 2,191
11/14/2018 04:43 survey 18.4 45
11/14/2018 04:43 adjustme 18.4 5,420
11/14/2018 04:43 j 18.4 10,866
11/14/2018 04:43 V 18.4 12,028
11/14/2018 04:43 ULD 18.4 304
11/14/2018 04:43 for 18.4 1,146
11/14/2018 04:43 Sales Rep 18.4 4
11/14/2018 04:43 fee borr 18.4 1,462
11/14/2018 04:43 extensio 18.4 1,035
11/14/2018 04:43 SE 18.4 16,969
11/14/2018 04:43 summary 18.4 80
11/14/2018 04:43 exten 18.4 1,124
11/14/2018 04:43 el 18.4 7,577
11/14/2018 04:43 summ 18.4 197
11/14/2018 04:43 custom 18.4 1,178
11/14/2018 04:43 Pri 18.4 5,555
11/14/2018 04:43 cl 18.4 4,160
11/14/2018 04:43 sum 18.4 327
11/14/2018 04:43 334 18.4 36
11/14/2018 04:43 P 18.4 25,017
11/14/2018 04:43 by o 18.4 1,240
11/14/2018 04:43 credit 18.4 482
11/14/2018 04:43 bu 18.4 3,739
11/14/2018 04:43 subordinate 18.4 54
11/14/2018 04:43 bo 18.4 3,954
11/14/2018 04:43 base 18.4 9,293
11/14/2018 04:43 automobile 18.4 7
11/14/2018 04:43 subo 18.4 58
11/14/2018 04:43 ap 18.4 1,431
11/14/2018 04:43 NEWHUD 18.4 5,803
11/14/2018 04:43 adj 18.4 10,157
11/14/2018 04:43 submitting 18.4 13
11/14/2018 04:42 Mo 18.4 11,444
11/14/2018 04:42 act 18.4 1,443
11/14/2018 04:42 X 18.4 17,090
11/14/2018 04:42 other 18.4 1,094
11/14/2018 04:42 M 18.4 24,251
11/14/2018 04:42 subject state 18.4 33
11/14/2018 04:42 Lock (Most Recent 18.4 5,533
11/14/2018 04:42 subject indicator 18.4 6
11/14/2018 04:42 Un 18.4 6,079
11/14/2018 04:42 LOCKRATE 18.4 12,421
11/14/2018 04:42 Sell 18.4 4,823
11/14/2018 04:42 plat 18.4 24
11/14/2018 04:42 sub 18.4 547
11/14/2018 04:42 Request 18.4 8,313
11/14/2018 04:42 Com 18.4 4,348
11/14/2018 04:42 Re 18.4 20,414
11/14/2018 04:42 Base 18.4 9,293
11/14/2018 04:42 street 18.4 149
11/14/2018 04:42 REQU 18.4 8,636
11/14/2018 04:42 Mort 18.4 1,556
11/14/2018 04:42 2 18.4 20,540
11/14/2018 04:42 MI 18.4 1,199
11/14/2018 04:42 1 18.4 21,213
11/14/2018 04:42 str 18.4 603
11/14/2018 04:42 Lock 18.4 13,781
11/14/2018 04:42 BenNm 18.4 2
11/14/2018 04:42 180 18.4 42
11/14/2018 04:42 t 18.4 32,362
11/14/2018 04:42 Hud 1 18.4 3,271
11/14/2018 04:42 spec 18.4 128
11/14/2018 04:42 pro 18.4 2,029
11/14/2018 04:42 debt 18.4 70
11/14/2018 04:42 resci 18.4 3
11/14/2018 04:42 File contac 18.4 1,004
11/14/2018 04:42 step rate 18.4 1
11/14/2018 04:42 payee code 18.4 10
11/14/2018 04:42 category 18.4 70
11/14/2018 04:42 se 18.4 16,969
11/14/2018 04:42 payee code 18.4 10
11/14/2018 04:42 party type 18.4 7
11/14/2018 04:42 EDISCLOSED2015TRK.EDISCLOSUREBORROWE 18.4 1
11/14/2018 04:42 s 18.4 32,493
11/14/2018 04:42 party type 18.4 7
11/14/2018 04:42 step payment 18.4 2
11/14/2018 04:42 request 18.4 8,313
11/14/2018 04:42 parcel 18.4 1
11/14/2018 04:42 DISCLOS 18.4 2,770
11/14/2018 04:42 parcel 18.4 1
11/14/2018 04:42 mor 18.4 1,588
11/14/2018 04:42 Inspection 18.4 19
11/14/2018 04:42 Closing Disclosu 18.4 1,015
11/14/2018 04:42 mineral 18.4 2
11/14/2018 04:41 rate request lock 18.4 7,896
11/14/2018 04:41 step paym 18.4 2
11/14/2018 04:41 this 18.4 18
11/14/2018 04:41 mineral 18.4 2
11/14/2018 04:41 Closing 18.4 2,119
11/14/2018 04:41 lot 18.4 8
11/14/2018 04:41 rate 18.4 13,952
11/14/2018 04:41 life of loan 18.4 3
11/14/2018 04:41 ot 18.4 3,630
11/14/2018 04:41 newhud2.x2841 18.4 1
11/14/2018 04:41 Prope 18.4 621
11/14/2018 04:41 CE 18.4 12,465
11/14/2018 04:41 life of loan 18.4 3
11/14/2018 04:41 step 18.4 8
11/14/2018 04:41 initial fi 18.4 15
11/14/2018 04:41 Borr F 18.4 2,427
11/14/2018 04:41 borr 18.4 3,282
11/14/2018 04:41 or 18.4 8,800
11/14/2018 04:41 5 18.4 9,484
11/14/2018 04:41 uldd appraisal id 18.4 1
11/14/2018 04:41 std 18.4 45
11/14/2018 04:41 ms.st 18.4 5
11/14/2018 04:41 newhud2 18.4 3,978
11/14/2018 04:41 newhud.x1143 18.4 1
11/14/2018 04:41 model 18.4 6
11/14/2018 04:41 ne 18.4 9,604
11/14/2018 04:41 x98 18.4 77
11/14/2018 04:41 status 18.4 174
11/14/2018 04:41 co-bo 18.4 582
11/14/2018 04:41 608 18.4 24
11/14/2018 04:41 x223 18.4 22
11/14/2018 04:41 stable monthly income 18.4 4
11/14/2018 04:41 n 18.4 31,289
11/14/2018 04:41 written 18.4 19
11/14/2018 04:41 wish 18.4 15
11/14/2018 04:41 los 18.4 4,008
11/14/2018 04:41 lockr 18.4 12,421
11/14/2018 04:41 verified 18.4 12
11/14/2018 04:41 lock 3 18.4 7,397
11/14/2018 04:41 st 18.4 15,360
11/14/2018 04:41 471 18.4 35
11/14/2018 04:41 verif 18.4 60
11/14/2018 04:41 lock (p 18.4 6,770
11/14/2018 04:41 vend.x735 18.4 1
11/14/2018 04:41 ssn 18.4 173
11/14/2018 04:41 lock ( 18.4 12,310
11/14/2018 04:41 vend.x43 18.4 11
11/14/2018 04:41 lock 18.4 13,781
11/14/2018 04:41 ven 18.4 1,105
11/14/2018 04:41 valuation 18.4 9
11/14/2018 04:41 HMDA.X12 18.4 1
11/14/2018 04:41 ssa-89 18.4 12
11/14/2018 04:41 uwC.AC 18.4 2
11/14/2018 04:40 lo 18.4 19,622
11/14/2018 04:40 uldd.x148 18.4 1
11/14/2018 04:40 trans detail total late payment 18.4 1
11/14/2018 04:40 le 18.4 5,984
11/14/2018 04:40 trans detail preapproval 18.4 1
11/14/2018 04:40 ssa 18.4 49
11/14/2018 04:40 trans de 18.4 527
11/14/2018 04:40 SYS.X268 18.4 1
11/14/2018 04:40 tpoi 18.4 12
11/14/2018 04:40 specific 18.4 65
11/14/2018 04:40 the 18.4 1,314
11/14/2018 04:40 solar 18.4 4
11/14/2018 04:40 terms.intr 18.4 1
11/14/2018 04:40 templat 18.4 24
11/14/2018 04:40 social 18.4 16
11/14/2018 04:40 telephone 18.4 32
11/14/2018 04:40 subject property type fan 18.4 12
11/14/2018 04:40 document.company 18.4 1
11/14/2018 04:40 subject pr 18.4 340
11/14/2018 04:40 signing 18.4 27
11/14/2018 04:40 statement 18.4 16
11/14/2018 04:40 763 18.4 44
11/14/2018 04:40 started 18.4 2
11/14/2018 04:40 x134 18.4 37
11/14/2018 04:40 equifax 18.4 177
11/14/2018 04:40 shee 18.4 102
11/14/2018 04:40 in 18.4 16,708
11/14/2018 04:40 settlementagent 18.4 11
11/14/2018 04:40 serv 18.4 953
11/14/2018 04:40 16 18.4 1,584
11/14/2018 04:40 i 18.4 32,630
11/14/2018 04:40 sellers 18.4 28
11/14/2018 04:40 section of housi 18.4 1
11/14/2018 04:40 section of ho 18.4 1
11/14/2018 04:40 hu 18.4 6,446
11/14/2018 04:40 side 18.4 5,248
11/14/2018 04:39 second term 18.4 1
11/14/2018 04:39 sec 35 hpml average prime offer rat 18.4 1
11/14/2018 04:39 fi 18.4 5,152
11/14/2018 04:39 fee 18.4 8,153
11/14/2018 04:39 shop 18.4 278
11/14/2018 04:39 det 18.4 4,347
11/14/2018 04:39 right to ca 18.4 21
11/14/2018 04:39 c 18.4 29,929
11/14/2018 04:39 shipping 18.4 33
11/14/2018 04:39 DEB 18.4 60
11/14/2018 04:39 rig 18.4 247
11/14/2018 04:39 ar 18.4 6,425
11/14/2018 04:39 1109 18.4 69
11/14/2018 04:39 Rate lock 18.4 13,604
11/14/2018 04:39 ret 18.4 125
11/14/2018 04:39 sheet 18.4 102
11/14/2018 04:39 IL 18.4 6,224
11/14/2018 04:39 respa.x6 18.4 1
11/14/2018 04:39 repur 18.4 7
11/14/2018 04:39 she 18.4 119
11/14/2018 04:39 reporting 18.4 4
11/14/2018 04:39 HU 18.4 6,446
11/14/2018 04:39 CD4.X9 18.4 1
11/14/2018 04:39 repair 18.4 9
11/14/2018 04:39 sharing 18.4 11
11/14/2018 04:39 E 18.4 34,199
11/14/2018 04:39 D 18.4 30,763
11/14/2018 04:39 rent income 18.4 14
11/14/2018 04:39 reo 18.4 5
11/14/2018 04:39 rent 18.4 384
11/14/2018 04:39 Cl 18.4 4,160
11/14/2018 04:39 sex 18.4 3
11/14/2018 04:39 relationship 18.4 44
11/14/2018 04:39 relati 18.4 59
11/14/2018 04:39 AR 18.4 6,425
11/14/2018 04:39 refun 18.4 66
11/14/2018 04:39 2106 18.4 35
11/14/2018 04:39 8 18.4 11,315
11/14/2018 04:39 refinance 18.4 72
11/14/2018 04:39 line descr 18.4 275
11/14/2018 04:39 refi type 18.4 8
11/14/2018 04:38 setup 18.4 19
11/14/2018 04:38 0109 18.4 2
11/14/2018 04:38 7 18.4 9,846
11/14/2018 04:38 recommen 18.4 9
11/14/2018 04:38 settlementagent 18.4 11
11/14/2018 04:38 reasons 18.4 15
11/14/2018 04:38 122 18.4 70
11/14/2018 04:38 rate se 18.4 10,169
11/14/2018 04:38 set 18.4 323
11/14/2018 04:38 purpo 18.4 55
11/14/2018 04:38 product code 18.4 12
11/14/2018 04:38 prior 18.4 35
11/14/2018 04:38 1041 18.4 15
11/14/2018 04:38 servicing 18.4 350
11/14/2018 04:38 prepaymen 18.4 50
11/14/2018 04:38 (Previous 18.4 6,974
11/14/2018 04:38 points and fees 18.4 137
11/14/2018 04:38 servicer 18.4 103
11/14/2018 04:38 35 18.4 1,213
11/14/2018 04:38 u 18.4 28,359
11/14/2018 04:38 Loan Pu 18.4 52
11/14/2018 04:38 servi 18.4 886
11/14/2018 04:38 LOG.MS.LASTCO 18.4 1
11/14/2018 04:38 307 18.4 104
11/14/2018 04:38 LO 18.4 19,622
11/14/2018 04:38 ty 18.4 2,483
11/14/2018 04:38 LE2.X96 18.4 1
11/14/2018 04:38 sequence 18.4 12
11/14/2018 04:38 to 18.4 6,016
11/14/2018 04:38 th 18.4 2,548
11/14/2018 04:38 LE2.X5 18.4 1
11/14/2018 04:38 sentdate 18.4 6
11/14/2018 04:38 35 18.4 1,213
11/14/2018 04:38 LE1.X24 18.4 1
11/14/2018 04:38 e 18.4 31,126
11/14/2018 04:38 sur 18.4 2,791
11/14/2018 04:38 sent date 18.4 40
11/14/2018 04:38 LE sen 18.4 36
11/14/2018 04:38 reque 18.4 8,324
11/14/2018 04:37 LE Loan Snapshot - Loan Amount 18.4 1
11/14/2018 04:37 L81 18.4 2
11/14/2018 04:37 rate lock 18.4 13,604
11/14/2018 04:37 L245 18.4 2
11/14/2018 04:37 605 18.4 13
11/14/2018 04:37 Info not 18.4 24
11/14/2018 04:37 rat 18.4 14,117
11/14/2018 04:37 Interviewer's License Number 18.4 2
11/14/2018 04:37 ID 18.4 10,113
11/14/2018 04:37 prev 18.4 7,122
11/14/2018 04:37 sent 18.4 177
11/14/2018 04:37 va rl 18.4 1
11/14/2018 04:37 HMDA.X109 18.4 1
11/14/2018 04:37 updated 18.4 9
11/14/2018 04:37 pa 18.4 8,126
11/14/2018 04:37 updated 18.4 9
11/14/2018 04:37 File Contacts Loan Proce 18.4 6
11/14/2018 04:37 1305 18.4 58
11/14/2018 04:37 beacon 18.4 172
11/14/2018 04:37 send 18.4 21
11/14/2018 04:37 Fil 18.4 1,148
11/14/2018 04:37 app. 18.4 1
11/14/2018 04:37 newhud2.x2478 18.4 1
11/14/2018 04:37 app. 18.4 1
11/14/2018 04:37 FM0041 18.4 1
11/14/2018 04:37 p 18.4 25,017
11/14/2018 04:37 1264 18.4 3
11/14/2018 04:37 FL0015 18.4 1
11/14/2018 04:37 sen 18.4 201
11/14/2018 04:37 1010 18.4 46
11/14/2018 04:37 FHA Sponsor 18.4 3
11/14/2018 04:37 1010 18.4 46
11/14/2018 04:37 o 18.4 32,444
11/14/2018 04:37 wr 18.4 260
11/14/2018 04:37 FE0217 18.4 1
11/14/2018 04:37 und 18.4 875
11/14/2018 04:37 margin 18.4 2,056
11/14/2018 04:37 FE0115 18.4 12
11/14/2018 04:37 und 18.4 875
11/14/2018 04:37 selling 18.4 1
11/14/2018 04:37 688 18.4 34
11/14/2018 04:37 uldd.x27 18.4 1
11/14/2018 04:37 lock (pre 18.4 6,770
11/14/2018 04:37 Document.DateOrdere 18.4 1
11/14/2018 04:37 type 18.4 931
11/14/2018 04:37 Document typ 18.4 26
11/14/2018 04:37 type 18.4 931
11/14/2018 04:37 seller nam 18.4 17
11/14/2018 04:37 total loan 18.4 67
11/14/2018 04:37 Document Signing 18.4 1
11/14/2018 04:37 lock (Most rec 18.4 5,533
11/14/2018 04:37 total loan 18.4 67
11/14/2018 04:37 Disclosure.X564 18.4 1
11/14/2018 04:37 survey date 18.4 3
11/14/2018 04:37 Disclosure Information 18.4 1
11/14/2018 04:37 aka 18.4 2
11/14/2018 04:37 loc 18.4 13,876
11/14/2018 04:37 request 18.4 7,208
11/14/2018 04:37 seller 18.4 1,953
11/14/2018 04:37 refund 18.4 61
11/14/2018 04:37 113 18.4 152
11/14/2018 04:37 Date I 18.4 1,281
11/14/2018 04:37 refund 18.4 61
11/14/2018 04:37 rescission 18.4 2
11/14/2018 04:37 qual 18.4 320
11/14/2018 04:37 DISCLOSURE.X631 18.4 1
11/14/2018 04:37 processor 18.4 25
11/14/2018 04:37 interim 18.4 263
11/14/2018 04:37 DISCLOSURE.X481 18.4 1
11/14/2018 04:36 interim 18.4 263
11/14/2018 04:36 li 18.4 9,654
11/14/2018 04:36 DISCLOSURE.X48 18.4 11
11/14/2018 04:36 in 18.4 16,461
11/14/2018 04:36 selected 18.4 12
11/14/2018 04:36 hmda.x24 18.4 1
11/14/2018 04:36 id 18.4 10,113
11/14/2018 04:36 hmda. 18.4 94
11/14/2018 04:36 DISCLOSURE.X364 18.4 1
11/14/2018 04:36 hmda. 18.4 94
11/14/2018 04:36 funded 18.4 8
11/14/2018 04:36 ice 18.4 6,657
11/14/2018 04:36 funded 18.4 8
11/14/2018 04:36 estimated 18.4 41
11/14/2018 04:36 section 18.4 783
11/14/2018 04:36 g 18.4 10,868
11/14/2018 04:36 credit decision 18.4 14
11/14/2018 04:36 DD001 18.4 10
11/14/2018 04:36 coop 18.4 12
11/14/2018 04:36 des 18.4 5,625
11/14/2018 04:36 conv 18.4 9
11/14/2018 04:36 Credit Rpt Ref 18.4 1
11/14/2018 04:36 disclosure.x95 18.4 11
11/14/2018 04:36 closer 18.4 6
11/14/2018 04:36 Closing Discl 18.4 1,016
11/14/2018 04:36 capiaP.X9 18.4 1
11/14/2018 04:36 de 18.4 17,909
11/14/2018 04:36 buy 18.4 2,926
11/14/2018 04:36 Document 18.4 488
11/14/2018 04:36 Census 18.4 2
11/14/2018 04:36 da 18.4 2,320
11/14/2018 04:36 branch id 18.4 65
11/14/2018 04:36 rate lock buy requested by 18.4 12
11/14/2018 04:36 branch id 18.4 65
11/14/2018 04:36 bor 18.4 3,682
11/14/2018 04:36 COND.OPEN.P 18.4 2
11/14/2018 04:36 bor 18.4 3,682
11/14/2018 04:36 attenti 18.4 12
11/14/2018 04:36 com 18.4 4,348
11/14/2018 04:36 CONCESSION 18.4 113
11/14/2018 04:36 approval date 18.4 32
11/14/2018 04:36 second 18.4 38
11/14/2018 04:36 co 18.4 10,428
11/14/2018 04:36 amount 18.4 4,074
11/14/2018 04:36 CD3.X12 18.4 40
11/14/2018 04:36 2499 18.4 13
11/14/2018 04:36 amount 18.4 4,074
11/14/2018 04:36 610 18.4 14
11/14/2018 04:36 CD1.XD9 18.4 1
11/14/2018 04:36 amortization type 18.4 10
11/14/2018 04:36 hmda.x93 18.4 1
11/14/2018 04:36 amortization type 18.4 10
11/14/2018 04:36 CASASRN.X107 18.4 1
11/14/2018 04:36 bor 18.4 3,801
11/14/2018 04:36 amortization 18.4 32
11/14/2018 04:36 sec 32 18.4 258
11/14/2018 04:36 additional 18.4 389
11/14/2018 04:36 CASASRN.X1 18.4 55
11/14/2018 04:36 VF 18.4 2
11/14/2018 04:36 Business 18.4 177
11/14/2018 04:36 VF 18.4 2
11/14/2018 04:36 score 18.4 561
11/14/2018 04:36 ULDD.X1 18.4 100
11/14/2018 04:36 MIP REFUND 18.4 1
11/14/2018 04:35 Borrower N 18.4 1,826
11/14/2018 04:35 ULDD.X1 18.4 100
11/14/2018 04:35 amo 18.4 4,290
11/14/2018 04:35 Trans Details 18.4 430
11/14/2018 04:35 Borrower Indicator 18.4 13
11/14/2018 04:35 Trans Details 18.4 430
11/14/2018 04:35 sched 18.4 235
11/14/2018 04:35 sys.x2 18.4 104
11/14/2018 04:35 Real estate owned 18.4 1
11/14/2018 04:35 Borr Race Info not prov 18.4 2
11/14/2018 04:35 Real estate owned 18.4 1
11/14/2018 04:35 Milestone Date 18.4 18
11/14/2018 04:35 Borr Employe 18.4 141
11/14/2018 04:35 Milestone Date 18.4 18
11/14/2018 04:35 Mavent 18.4 18
11/14/2018 04:35 scenario 18.4 75
11/14/2018 04:35 BE0004 18.4 2
11/14/2018 04:35 Mavent 18.4 18
11/14/2018 04:35 Assistant 18.4 2
11/14/2018 04:35 LoanTeammember.name 18.4 1
11/14/2018 04:35 sate 18.4 60
11/14/2018 04:35 Lender ID 18.4 266
11/14/2018 04:35 relations 18.4 44
11/14/2018 04:35 age 18.4 2,182
11/14/2018 04:35 Lender ID 18.4 266
11/14/2018 04:35 compar 18.4 2,584
11/14/2018 04:35 As completed purchase price 18.4 1
11/14/2018 04:35 Land 18.4 68
11/14/2018 04:35 adjust 18.4 9,985
11/14/2018 04:35 For financing 18.4 1
11/14/2018 04:35 same 18.4 20
11/14/2018 04:35 Lender Name 18.4 37
11/14/2018 04:35 ac 18.4 3,447
11/14/2018 04:35 For financing 18.4 1
11/14/2018 04:35 AUSF.X3 18.4 11
11/14/2018 04:35 File Contacts Title C 18.4 35
11/14/2018 04:35 X3 18.4 2,250
11/14/2018 04:35 File Contacts Title C 18.4 35
4,290 of 34,519 Fields in Encompass 18.4 contain 'amo' Page 1 of 5   Next 1000
Type Field ID Format Opts Description First Chng
Standard 200 DECIMAL_2 Hud line 801g Seller Amount
Standard 312 DECIMAL_2 Trans Details Amort Type GPM Extra Pymt
Standard 423 STRING 1 Trans Details Amort Type Biweekly
Standard 608 STRING 4 Trans Details Amort Type
Standard 994 STRING Trans Details Amort Type Other Descr
Standard 995 STRING Trans Details Amort Type ARM Descr
Standard 1266 INTEGER Trans Details Amort Type GPM Yrs
Standard 1267 DECIMAL_3 Trans Details Amort Type GPM Rate
Standard 1626 DECIMAL_2 Hud line 801h Seller Amount
Standard 1659 YN 2 Trans Details Amort Type Balloon 8.1 15.2
Standard 1840 DECIMAL_2 Hud line 801i Seller Amount
Standard 1843 DECIMAL_2 Hud line 801j Seller Amount
Standard 1963 DATE REGZ Construction Mortgage 1st Amortization Date
Standard 2005 DECIMAL_2 Trans Details Overwire Amount
Standard 2208 DECIMAL_2 Purchase Advice Sell Amount
Standard 2210 DECIMAL_2 Purchase Advice SRP Amount
Standard 2214 DECIMAL_2 Purchase Advice Amount Received
Standard 2373 DECIMAL_2 Purchase Advice Payouts 1 Amount
Standard 2375 DECIMAL_2 Purchase Advice Payouts 2 Amount
Standard 2377 DECIMAL_2 Purchase Advice Payouts 3 Amount
Standard 2379 DECIMAL_2 Purchase Advice Payouts 4 Amount
Standard 2381 DECIMAL_2 Purchase Advice Payouts 5 Amount
Standard 2383 DECIMAL_2 Purchase Advice Payouts 6 Amount
Standard 2385 DECIMAL_2 Purchase Advice Payouts 7 Amount
Standard 2387 DECIMAL_2 Purchase Advice Payouts 8 Amount
Standard 2389 DECIMAL_2 Purchase Advice Payouts 9 Amount
Standard 2391 DECIMAL_2 Purchase Advice Payouts 10 Amount
Standard 2393 DECIMAL_2 Purchase Advice Payouts 11 Amount
Standard 2395 DECIMAL_2 Purchase Advice Payouts 12 Amount
Standard 2402 DECIMAL_2 Fees Recording Fee Deed Amount
Standard 2403 DECIMAL_2 Fees Recording Fee Mortgage Amount
Standard 2404 DECIMAL_2 Fees Recording Fee Releases Amount
Standard 2405 DECIMAL_2 Fees Recording Fee Deed Amount
Standard 2406 DECIMAL_2 Fees Recording Fee Mortgage Amount
Standard 2407 DECIMAL_2 Fees Recording Fee Deed Amount
Standard 2408 DECIMAL_2 Fees Recording Fee Mortgage Amount
Standard 2409 DECIMAL_2 Fees Line 1109 Lender's Coverage Amount
Standard 2410 DECIMAL_2 Fees Line 1110 Owner's Coverage Amount
Standard 2830 STRING 3 Amount REGZ Prepayment Penalty Based On
Standard 2953 STRING 4 Lock Request Amort Type
Standard 2954 DECIMAL_3 Lock Request Amort Type GPM Rate
Standard 2955 INTEGER Lock Request Amort Type GPM Years
Standard 2956 STRING Lock Request Amort Type ARM Descr
Standard 2957 STRING Lock Request Amort Type Other Descr
Standard 2965 DECIMAL_2 Lock Request Loan Amount
Standard 2991 DECIMAL_2 Underwriting Modified Terms Loan Amount
Standard 3007 DECIMAL_2 HUD 92900 LT 2nd Financing Amount
Standard 3015 DECIMAL_2 HUD 92900 LT Gift 1 Amount
Standard 3022 DECIMAL_2 HUD 92900 LT Gift 2 Amount
Standard 3035 DECIMAL_2 Lock Request First Subordinate Amount
Standard 3036 DECIMAL_2 Lock Request Second Subordinate Amount
Standard 3037 DECIMAL_2 Lock Request Other Subordinate Amount
Standard 3038 DECIMAL_2 Lock Request Purchase Price Amount
Standard 3081 DECIMAL_2 FHA Management UFMIP Remitted Amount
Standard 3178 DECIMAL_2 HUD 1003 Addendum Mod Loan Amount
Standard 3267 DECIMAL_2 REGZ-TIL Interest Rate and Payment Summary Table - Initial Taxes and Insurance Amount
Standard 3272 DECIMAL_2 REGZ-TIL Interest Rate and Payment Summary Table - First Adjustment Taxes and Insurance Amount
Standard 3278 DECIMAL_2 REGZ-TIL Interest Rate and Payment Summary Table - Maximum During First 5 Years - Taxes and Insurance Amount
Standard 3283 DECIMAL_2 REGZ-TIL Interest Rate and Payment Summary Table - Maximum Ever - Taxes and Insurance Amount
Standard 3424 DECIMAL_2 Purchase Advice Actual Sell Amount
Standard 3425 DECIMAL_2 Purchase Advice Diff Sell Amount
Standard 3428 DECIMAL_2 Purchase Advice Actual SRP Amount
Standard 3429 DECIMAL_2 Purchase Advice Diff SRP Amount
Standard 3555 DECIMAL_2 Property Info The Original Principal Amount of The Prior Mortgage as Recorded 8.1
Standard 3561 DECIMAL_2 Financed Guarantee Fee - Guarantee Amount 8.1
Standard 3562 DECIMAL_2 Financed Guarantee Fee - Total Loan Amount 8.1
Standard 3564 DECIMAL_2 Portion of Financed Guarantee Fee - Guarantee Amount 8.1
Standard 3565 DECIMAL_2 Portion of Financed Guarantee Fee - Total Loan Amount 8.1
Standard 3573 DECIMAL_10 Correspondent Purchase Advice Additional Adjusters 1 Amount 8.1
Standard 3575 DECIMAL_10 Correspondent Purchase Advice Additional Adjusters 2 Amount 8.1
Standard 3577 DECIMAL_10 Correspondent Purchase Advice Additional Adjusters 3 Amount 8.1
Standard 3583 DECIMAL_2 Correspondent Purchase Advice Additional Purchase Details Final Buy Amount 8.1
Standard 3584 DECIMAL_2 Correspondent Purchase Advice Additional Purchase Details SRP Amount 8.1
Standard 3585 DECIMAL_2 Correspondent Purchase Advice Additional Purchase Details Remaining Buydown Amount 8.1
Standard 3588 DECIMAL_2 Correspondent Purchase Advice Additional Purchase Details Additional Amount 1 8.1
Standard 3590 DECIMAL_2 Correspondent Purchase Advice Additional Purchase Details Additional Amount 2 8.1
Standard 3592 DECIMAL_2 Correspondent Purchase Advice Additional Purchase Details Additional Amount 3 8.1
Standard 3594 DECIMAL_2 Correspondent Purchase Advice Additional Purchase Details Additional Amount 4 8.1
Standard 3596 DECIMAL_2 Correspondent Purchase Advice Additional Purchase Details Additional Amount 5 8.1
Standard 3598 DECIMAL_2 Correspondent Purchase Advice Additional Purchase Details Additional Amount 6 8.1
Standard 3600 DECIMAL_2 Correspondent Purchase Advice Additional Purchase Details Additional Amount 7 8.1
Standard 3602 DECIMAL_2 Correspondent Purchase Advice Additional Purchase Details Additional Amount 8 8.1
Standard 3604 DECIMAL_2 Correspondent Purchase Advice Additional Purchase Details Additional Amount 9 8.1
Standard 3606 DECIMAL_2 Correspondent Purchase Advice Additional Purchase Details Additional Amount 10 8.1
Standard 3608 DECIMAL_2 Correspondent Purchase Advice Additional Purchase Details Additional Amount 11 8.1
Standard 3610 DECIMAL_2 Correspondent Purchase Advice Additional Purchase Details Additional Amount 12 8.1
Standard 3611 DECIMAL_2 Correspondent Purchase Advice Additional Purchase Details Additional Total Amount 8.1
Standard 3649 DECIMAL_2 Closing Docs Mfg Home Original Pincipal Amount Secured 8.1
Standard 3655 DECIMAL_2 Closing Docs Mfg Home Additional Original Pincipal Amount Secured 8.1
Standard 3970 DECIMAL_2 Correspondent Purchase Advice Additional Purchase Details Additional Total Amount 15.1
Standard 3971 DECIMAL_2 MI Prepaid Amount 15.1
Standard 4085 DECIMAL_2 Trans Details Monthly PI Payment Amount For LE1 and CD1 16.1
Standard 4156 YN 2 Borr Guamanian or Chamorro Indicator 17.2
Standard 4157 YN 2 Borr Samoan Indicator 17.2
Standard 4171 YN 2 Co-Borr Guamanian or Chamorro Indicator 17.2
Standard 4172 YN 2 Co-Borr Samoan Indicator 17.2
Standard 4191 DECIMAL_2 Correspondent Purchase Advice Additional Purchase Details Total Buy Amount 17.3
Standard 4487 DECIMAL_2 Closed End Primary Mortgage Loan Amount 18.4
Standard 4488 DECIMAL_2 Closed End Subordinate Mortgage Loan Amount 18.4
Standard 4489 DECIMAL_2 Heloc New Financing Not Linked Draw Amount 18.4
Standard 4493 DECIMAL_2 HELOC Amount Apply To Down Payment 18.4
Standard AUS.CUREDX16 DECIMAL_2 Cured AUS Tracking - Total Loan Amount 9.1
Standard AUS.CUREDX22 STRING 4 Cured AUS Tracking - Amortization Type 9.1
Standard AUS.X102 DECIMAL_2 AUS Tracking - Fannie Mae - Borrower Income Amount 9.1 16.1
Standard AUS.X105 DECIMAL_2 AUS Tracking - Fannie Mae - CoBorrower Income Amount 9.1 16.1
Standard AUS.X109 DECIMAL_2 AUS Tracking - Fannie Mae - Borrower Asset Amount 9.1 16.1
Standard AUS.X113 DECIMAL_2 AUS Tracking - Fannie Mae - CoBorrower Asset Amount 9.1 16.1
Standard AUS.X144 INTEGER AUS Tracking - Freddie Mac - Amortization Months 9.1 16.1
Standard AUS.X152 STRING AUS Tracking - Freddie Mac - Neg. Amortization Type 9.1 16.1
Standard AUS.X158 DECIMAL_2 AUS Tracking - Freddie Mac - Cash Out Amount 9.1 16.1
Standard AUS.X16 DECIMAL_2 AUS Tracking - Total Loan Amount 9.1
Standard AUS.X22 STRING 4 AUS Tracking - Amortization Type 9.1
Standard AUS.X60 DECIMAL_2 AUS Tracking - Fannie Mae - Loan Amount 9.1 16.1
Standard AUS.X61 DECIMAL_2 AUS Tracking - Fannie Mae - Financed MI Amount 9.1 16.1
Virtual AUSTRACKING.AUS.X102 DECIMAL_2 Last Snapshot - AUS Tracking - Fannie Mae - Borrower Income Amount 15.1 15.2 16.1
Virtual AUSTRACKING.AUS.X105 DECIMAL_2 Last Snapshot - AUS Tracking - Fannie Mae - CoBorrower Income Amount 15.1 15.2 16.1
Virtual AUSTRACKING.AUS.X109 DECIMAL_2 Last Snapshot - AUS Tracking - Fannie Mae - Borrower Asset Amount 15.1 15.2 16.1
Virtual AUSTRACKING.AUS.X113 DECIMAL_2 Last Snapshot - AUS Tracking - Fannie Mae - CoBorrower Asset Amount 15.1 15.2 16.1
Virtual AUSTRACKING.AUS.X144 INTEGER Last Snapshot - AUS Tracking - Freddie Mac - Amortization Months 15.1 15.2 16.1
Virtual AUSTRACKING.AUS.X152 STRING Last Snapshot - AUS Tracking - Freddie Mac - Neg. Amortization Type 15.1 15.2 16.1
Virtual AUSTRACKING.AUS.X158 DECIMAL_2 Last Snapshot - AUS Tracking - Freddie Mac - Cash Out Amount 15.1 15.2 16.1
Virtual AUSTRACKING.AUS.X16 DECIMAL_2 Last Snapshot - AUS Tracking - Total Loan Amount 9.1 15.1 15.2 16.1
Virtual AUSTRACKING.AUS.X22 STRING Last Snapshot - AUS Tracking - Amortization Type 9.1 15.1 15.2 16.1
Virtual AUSTRACKING.AUS.X60 DECIMAL_2 Last Snapshot - AUS Tracking - Fannie Mae - Loan Amount 15.1 15.2 16.1
Virtual AUSTRACKING.AUS.X61 DECIMAL_2 Last Snapshot - AUS Tracking - Fannie Mae - Financed MI Amount 15.1 15.2 16.1
Standard CASASRN.X85 YN 2 Freddie Mac Lender Allows Neg Amort
Standard CD1.X11 DECIMAL_2 Closing Disclosure - Projected Calculation - Column 1 - Mortgage Insurance Amount 15.1
Standard CD1.X12 DECIMAL_2 Closing Disclosure - Projected Calculation - Column 1 - Estimated Escrow Amount 15.1
Standard CD1.X20 DECIMAL_2 Closing Disclosure - Projected Calculation - Column 2 - Mortgage Insurance Amount 15.1
Standard CD1.X21 DECIMAL_2 Closing Disclosure - Projected Calculation - Column 2 - Estimated Escrow Amount 15.1
Standard CD1.X29 DECIMAL_2 Closing Disclosure - Projected Calculation - Column 3 - Mortgage Insurance Amount 15.1
Standard CD1.X30 DECIMAL_2 Closing Disclosure - Projected Calculation - Column 3 - Estimated Escrow Amount 15.1
Standard CD1.X38 DECIMAL_2 Closing Disclosure - Projected Calculation - Column 4 - Mortgage Insurance Amount 15.1
Standard CD1.X39 DECIMAL_2 Closing Disclosure - Projected Calculation - Column 4 - Estimated Escrow Amount 15.1
Standard CD1.XD11 STRING Closing Disclosure - Projected Calculation - Column 1 - Mortgage Insurance Amount UI Value 16.1
Standard CD1.XD12 STRING Closing Disclosure - Projected Calculation - Column 1 - Estimated Escrow Amount UI Value 16.1
Standard CD1.XD20 STRING Closing Disclosure - Projected Calculation - Column 2 - Mortgage Insurance Amount UI Value 16.1
Standard CD1.XD21 STRING Closing Disclosure - Projected Calculation - Column 2 - Estimated Escrow Amount UI Value 16.1
Standard CD1.XD29 STRING Closing Disclosure - Projected Calculation - Column 3 - Mortgage Insurance Amount UI Value 16.1
Standard CD1.XD30 STRING Closing Disclosure - Projected Calculation - Column 3 - Estimated Escrow Amount UI Value 16.1
Standard CD1.XD38 STRING Closing Disclosure - Projected Calculation - Column 4 - Mortgage Insurance Amount UI Value 16.1
Standard CD1.XD39 STRING Closing Disclosure - Projected Calculation - Column 4 - Estimated Escrow Amount UI Value 16.1
Standard CD3.X1002 DECIMAL_2 Closing Disclosure Page 3 - Adjustments for Items Paid by Seller in Advance Other (line 16) - Fee Amount - Line 10 16.2
Standard CD3.X1007 DECIMAL_2 Closing Disclosure Page 3 - Adjustments for Items Paid by Seller in Advance Other (line 16) - Fee Amount - Line 11 16.2
Standard CD3.X1012 DECIMAL_2 Closing Disclosure Page 3 - Adjustments for Items Paid by Seller in Advance Other (line 16) - Fee Amount - Line 12 16.2
Standard CD3.X1017 DECIMAL_2 Closing Disclosure Page 3 - Adjustments for Items Paid by Seller in Advance Other (line 16) - Fee Amount - Line 13 16.2
Standard CD3.X1022 DECIMAL_2 Closing Disclosure Page 3 - Adjustments for Items Paid by Seller in Advance Other (line 16) - Fee Amount - Line 14 16.2
Standard CD3.X1027 DECIMAL_2 Closing Disclosure Page 3 - Adjustments for Items Paid by Seller in Advance Other (line 16) - Fee Amount - Line 15 16.2
Standard CD3.X1032 DECIMAL_2 Closing Disclosure Page 3 - Adjustments for Items Paid by Seller in Advance Other (line 16) - Fee Amount - Line 16 16.2
Standard CD3.X1037 DECIMAL_2 Closing Disclosure Page 3 - Adjustments for Items Paid by Seller in Advance Other (line 16) - Fee Amount - Line 17 16.2
Standard CD3.X1042 DECIMAL_2 Closing Disclosure Page 3 - Adjustments for Items Paid by Seller in Advance Other (line 16) - Fee Amount - Line 18 16.2
Standard CD3.X1050 DECIMAL_2 Closing Disclosure Page 3 - Due from Seller at Closing - Payoffs (line 6) - Fee Amount - Line 02 16.2
Standard CD3.X1053 DECIMAL_2 Closing Disclosure Page 3 - Due from Seller at Closing - Payoffs (line 6) - Fee Amount - Line 03 16.2
Standard CD3.X1056 DECIMAL_2 Closing Disclosure Page 3 - Due from Seller at Closing - Payoffs (line 6) - Fee Amount - Line 04 16.2
Standard CD3.X1059 DECIMAL_2 Closing Disclosure Page 3 - Due from Seller at Closing - Payoffs (line 6) - Fee Amount - Line 05 16.2
Standard CD3.X1062 DECIMAL_2 Closing Disclosure Page 3 - Due from Seller at Closing - Payoffs (line 6) - Fee Amount - Line 06 16.2
Standard CD3.X1065 DECIMAL_2 Closing Disclosure Page 3 - Due from Seller at Closing - Payoffs (line 6) - Fee Amount - Line 07 16.2
Standard CD3.X1068 DECIMAL_2 Closing Disclosure Page 3 - Due from Seller at Closing - Payoffs (line 7) - Fee Amount - Line 01 16.2
Standard CD3.X1071 DECIMAL_2 Closing Disclosure Page 3 - Due from Seller at Closing - Payoffs (line 7) - Fee Amount - Line 02 16.2
Standard CD3.X1074 DECIMAL_2 Closing Disclosure Page 3 - Due from Seller at Closing - Payoffs (line 7) - Fee Amount - Line 03 16.2
Standard CD3.X1077 DECIMAL_2 Closing Disclosure Page 3 - Due from Seller at Closing - Payoffs (line 7) - Fee Amount - Line 04 16.2
Standard CD3.X1080 DECIMAL_2 Closing Disclosure Page 3 - Due from Seller at Closing - Payoffs (line 7) - Fee Amount - Line 05 16.2
Standard CD3.X1083 DECIMAL_2 Closing Disclosure Page 3 - Due from Seller at Closing - Payoffs (line 7) - Fee Amount - Line 06 16.2
Standard CD3.X1086 DECIMAL_2 Closing Disclosure Page 3 - Due from Seller at Closing - Payoffs (line 7) - Fee Amount - Line 07 16.2
Standard CD3.X118 STRING ALT Loan Amount Did Change Col 15.1
Standard CD3.X1197 DECIMAL_2 Closing Disclosure Page 3 - Due from Seller at Closing - Other Items (line 13) - Fee Amount - Line 01 16.2
Standard CD3.X1200 DECIMAL_2 Closing Disclosure Page 3 - Due from Seller at Closing - Other Items (line 13) - Fee Amount - Line 02 16.2
Standard CD3.X1203 DECIMAL_2 Closing Disclosure Page 3 - Due from Seller at Closing - Other Items (line 13) - Fee Amount - Line 03 16.2
Standard CD3.X1206 DECIMAL_2 Closing Disclosure Page 3 - Due from Seller at Closing - Other Items (line 13) - Fee Amount - Line 04 16.2
Standard CD3.X1209 DECIMAL_2 Closing Disclosure Page 3 - Due from Seller at Closing - Other Items (line 13) - Fee Amount - Line 05 16.2
Standard CD3.X1212 DECIMAL_2 Closing Disclosure Page 3 - Due from Seller at Closing - Other Items (line 13) - Fee Amount - Line 06 16.2
Standard CD3.X1215 DECIMAL_2 Closing Disclosure Page 3 - Due from Seller at Closing - Other Items (line 13) - Fee Amount - Line 07 16.2
Standard CD3.X1218 DECIMAL_2 Closing Disclosure Page 3 - Due from Seller at Closing - Other Items (line 13) - Fee Amount - Line 08 16.2
Standard CD3.X1221 DECIMAL_2 Closing Disclosure Page 3 - Due from Seller at Closing - Other Items (line 13) - Fee Amount - Line 09 16.2
Standard CD3.X130 STRING 2 ALT Loan Amount IncDec Remark 15.1
Standard CD3.X135 DECIMAL_2 Prior Tolerance Cure Amount 15.1
Standard CD3.X140 DECIMAL_2 Closing Disclosure Page 3 - Due from Borrower at Closing (line 4) - Fee Amount - Line 1 16.2
Standard CD3.X1413 DECIMAL_2 Closing Disclosure Page 3 - Adjustments for Items Unpaid by Seller (line 19) - Fee Amount - Line 01 16.2
Standard CD3.X1418 DECIMAL_2 Closing Disclosure Page 3 - Adjustments for Items Unpaid by Seller (line 19) - Fee Amount - Line 02 16.2
Standard CD3.X1423 DECIMAL_2 Closing Disclosure Page 3 - Adjustments for Items Unpaid by Seller (line 19) - Fee Amount - Line 03 16.2
Standard CD3.X1428 DECIMAL_2 Closing Disclosure Page 3 - Adjustments for Items Unpaid by Seller (line 19) - Fee Amount - Line 04 16.2
Standard CD3.X1433 DECIMAL_2 Closing Disclosure Page 3 - Adjustments for Items Unpaid by Seller (line 19) - Fee Amount - Line 05 16.2
Standard CD3.X1438 DECIMAL_2 Closing Disclosure Page 3 - Adjustments for Items Unpaid by Seller (line 19) - Fee Amount - Line 06 16.2
Standard CD3.X144 DECIMAL_2 Closing Disclosure Page 3 - Due from Borrower at Closing (line 4) - Fee Amount - Line 2 16.2
Standard CD3.X1443 DECIMAL_2 Closing Disclosure Page 3 - Adjustments for Items Unpaid by Seller (line 19) - Fee Amount - Line 07 16.2
Standard CD3.X1448 DECIMAL_2 Closing Disclosure Page 3 - Adjustments for Items Unpaid by Seller (line 19) - Fee Amount - Line 08 16.2
Standard CD3.X1453 DECIMAL_2 Closing Disclosure Page 3 - Adjustments for Items Unpaid by Seller (line 19) - Fee Amount - Line 09 16.2
Standard CD3.X1458 DECIMAL_2 Closing Disclosure Page 3 - Adjustments for Items Unpaid by Seller (line 19) - Fee Amount - Line 10 16.2
Standard CD3.X1463 DECIMAL_2 Closing Disclosure Page 3 - Adjustments for Items Unpaid by Seller (line 19) - Fee Amount - Line 11 16.2
Standard CD3.X1468 DECIMAL_2 Closing Disclosure Page 3 - Adjustments for Items Unpaid by Seller (line 19) - Fee Amount - Line 12 16.2
Standard CD3.X1473 DECIMAL_2 Closing Disclosure Page 3 - Adjustments for Items Unpaid by Seller (line 19) - Fee Amount - Line 13 16.2
Standard CD3.X1478 DECIMAL_2 Closing Disclosure Page 3 - Adjustments for Items Unpaid by Seller (line 19) - Fee Amount - Line 14 16.2
Standard CD3.X148 DECIMAL_2 Closing Disclosure Page 3 - Due from Borrower at Closing (line 4) - Fee Amount - Line 3 16.2
Standard CD3.X1483 DECIMAL_2 Closing Disclosure Page 3 - Adjustments for Items Unpaid by Seller (line 19) - Fee Amount - Line 15 16.2
Standard CD3.X1488 DECIMAL_2 Closing Disclosure Page 3 - Adjustments for Items Unpaid by Seller (line 19) - Fee Amount - Line 16 16.2
Standard CD3.X1493 DECIMAL_2 Closing Disclosure Page 3 - Adjustments for Items Unpaid by Seller (line 19) - Fee Amount - Line 17 16.2
Standard CD3.X1498 DECIMAL_2 Closing Disclosure Page 3 - Adjustments for Items Unpaid by Seller (line 19) - Fee Amount - Line 18 16.2
Standard CD3.X152 DECIMAL_2 Closing Disclosure Page 3 - Due from Borrower at Closing (line 4) - Fee Amount - Line 4 16.2
Standard CD3.X156 DECIMAL_2 Closing Disclosure Page 3 - Due from Borrower at Closing (line 4) - Fee Amount - Line 5 16.2
Standard CD3.X160 DECIMAL_2 Closing Disclosure Page 3 - Due from Borrower at Closing (line 4) - Fee Amount - Line 6 16.2
Standard CD3.X164 DECIMAL_2 Closing Disclosure Page 3 - Due from Borrower at Closing (line 4) - Fee Amount - Line 7 16.2
Standard CD3.X168 DECIMAL_2 Closing Disclosure Page 3 - Due from Borrower at Closing (line 4) - Fee Amount - Line 8 16.2
Standard CD3.X172 DECIMAL_2 Closing Disclosure Page 3 - Due from Borrower at Closing (line 4) - Fee Amount - Line 9 16.2
Standard CD3.X176 DECIMAL_2 Closing Disclosure Page 3 - Due from Borrower at Closing (line 4) - Fee Amount - Line 10 16.2
Standard CD3.X180 DECIMAL_2 Closing Disclosure Page 3 - Due from Borrower at Closing (line 4) - Fee Amount - Line 11 16.2
Standard CD3.X184 DECIMAL_2 Closing Disclosure Page 3 - Due from Borrower at Closing (line 4) - Fee Amount - Line 12 16.2
Standard CD3.X188 DECIMAL_2 Closing Disclosure Page 3 - Due from Borrower at Closing (line 4) - Fee Amount - Line 13 16.2
Standard CD3.X192 DECIMAL_2 Closing Disclosure Page 3 - Due from Borrower at Closing (line 4) - Fee Amount - Line 14 16.2
Standard CD3.X196 DECIMAL_2 Closing Disclosure Page 3 - Due from Borrower at Closing (line 4) - Fee Amount - Line 15 16.2
Standard CD3.X200 DECIMAL_2 Closing Disclosure Page 3 - Due from Borrower at Closing (line 4) - Fee Amount - Line 16 16.2
Standard CD3.X204 DECIMAL_2 Closing Disclosure Page 3 - Due from Borrower at Closing (line 4) - Fee Amount - Line 17 16.2
Standard CD3.X208 DECIMAL_2 Closing Disclosure Page 3 - Due from Borrower at Closing (line 4) - Fee Amount - Line 18 16.2
Standard CD3.X212 DECIMAL_2 Closing Disclosure Page 3 - Due from Borrower at Closing (line 4) - Fee Amount - Line 19 16.2
Standard CD3.X216 DECIMAL_2 Closing Disclosure Page 3 - Due from Borrower at Closing (line 4) - Fee Amount - Line 20 16.2
Standard CD3.X220 DECIMAL_2 Closing Disclosure Page 3 - Due from Borrower at Closing (line 4) - Fee Amount - Line 21 16.2
Standard CD3.X224 DECIMAL_2 Closing Disclosure Page 3 - Due from Borrower at Closing (line 5) - Fee Amount - Line 1 16.2
Standard CD3.X228 DECIMAL_2 Closing Disclosure Page 3 - Due from Borrower at Closing (line 6) - Fee Amount - Line 1 16.2
Standard CD3.X232 DECIMAL_2 Closing Disclosure Page 3 - Due from Borrower at Closing (line 7) - Fee Amount - Line 1 16.2
Standard CD3.X236 DECIMAL_2 Closing Disclosure Page 3 - Due from Borrower at Closing (line 7) - Fee Amount - Line 2 16.2
Standard CD3.X240 DECIMAL_2 Closing Disclosure Page 3 - Due from Borrower at Closing (line 7) - Fee Amount - Line 3 16.2
Standard CD3.X244 DECIMAL_2 Closing Disclosure Page 3 - Due from Borrower at Closing (line 7) - Fee Amount - Line 4 16.2
Standard CD3.X248 DECIMAL_2 Closing Disclosure Page 3 - Due from Borrower at Closing (line 7) - Fee Amount - Line 5 16.2
Standard CD3.X252 DECIMAL_2 Closing Disclosure Page 3 - Due from Borrower at Closing (line 7) - Fee Amount - Line 6 16.2
Standard CD3.X280 DECIMAL_2 Closing Disclosure Page 3 - Section L - Paid Already by or on Behalf of Borrower at Closing (Line 4) - Fee Amount - Line 1 16.2
Standard CD3.X283 DECIMAL_2 Closing Disclosure Page 3 - Section L - Paid Already by or on Behalf of Borrower at Closing (Line 4) - Fee Amount - Line 2 16.2
Standard CD3.X286 DECIMAL_2 Closing Disclosure Page 3 - Section L - Paid Already by or on Behalf of Borrower at Closing (line 6) - Fee Amount - Line 1 16.2
Standard CD3.X291 DECIMAL_2 Closing Disclosure Page 3 - Section L - Paid Already by or on Behalf of Borrower at Closing (line 7) - Fee Amount - Line 1 16.2
Standard CD3.X296 DECIMAL_2 Closing Disclosure Page 3 - Section L - Paid Already by or on Behalf of Borrower at Closing (line 7) - Fee Amount - Line 2 16.2
Standard CD3.X301 DECIMAL_2 Closing Disclosure Page 3 - Section L - Paid Already by or on Behalf of Borrower at Closing (line 7) - Fee Amount - Line 3 16.2
Standard CD3.X306 DECIMAL_2 Closing Disclosure Page 3 - Section L - Paid Already by or on Behalf of Borrower at Closing (line 7) - Fee Amount - Line 4 16.2
Standard CD3.X311 DECIMAL_2 Closing Disclosure Page 3 - Section L - Paid Already by or on Behalf of Borrower at Closing (line 8) - Fee Amount - Line 1 16.2
Standard CD3.X315 DECIMAL_2 Closing Disclosure Page 3 - Section L - Paid Already by or on Behalf of Borrower at Closing (line 9) - Fee Amount - Line 1 16.2
Standard CD3.X319 DECIMAL_2 Closing Disclosure Page 3 - Section L - Paid Already by or on Behalf of Borrower at Closing (line 10) - Fee Amount - Line 1 16.2
Standard CD3.X323 DECIMAL_2 Closing Disclosure Page 3 - Section L - Paid Already by or on Behalf of Borrower at Closing (line 11) - Fee Amount - Line 1 16.2
Standard CD3.X327 DECIMAL_2 Closing Disclosure Page 3 - Section L - Paid Already by or on Behalf of Borrower at Closing (line 11) - Fee Amount - Line 2 16.2
Standard CD3.X331 DECIMAL_2 Closing Disclosure Page 3 - Section L - Paid Already by or on Behalf of Borrower at Closing (line 11) - Fee Amount - Line 3 16.2
Standard CD3.X335 DECIMAL_2 Closing Disclosure Page 3 - Section L - Paid Already by or on Behalf of Borrower at Closing (line 11) - Fee Amount - Line 4 16.2
Standard CD3.X354 DECIMAL_2 Closing Disclosure Page 3 - Adjustments for Items Unpaid by Seller (line 18) - Fee Amount - Line 1 16.2
Standard CD3.X359 DECIMAL_2 Closing Disclosure Page 3 - Adjustments for Items Unpaid by Seller (line 18) - Fee Amount - Line 2 16.2
Standard CD3.X364 DECIMAL_2 Closing Disclosure Page 3 - Adjustments for Items Unpaid by Seller (line 18) - Fee Amount - Line 3 16.2
Standard CD3.X369 DECIMAL_2 Closing Disclosure Page 3 - Adjustments for Items Unpaid by Seller (line 18) - Fee Amount - Line 4 16.2
Standard CD3.X374 DECIMAL_2 Closing Disclosure Page 3 - Adjustments for Items Unpaid by Seller (line 18) - Fee Amount - Line 5 16.2
Standard CD3.X379 DECIMAL_2 Closing Disclosure Page 3 - Adjustments for Items Unpaid by Seller (line 17) - Fee Amount - Line 6 16.2
Standard CD3.X384 DECIMAL_2 Closing Disclosure Page 3 - Adjustments for Items Unpaid by Seller (line 17) - Fee Amount - Line 7 16.2
Standard CD3.X389 DECIMAL_2 Closing Disclosure Page 3 - Adjustments for Items Unpaid by Seller (line 17) - Fee Amount - Line 8 16.2
Standard CD3.X394 DECIMAL_2 Closing Disclosure Page 3 - Adjustments for Items Unpaid by Seller (line 17) - Fee Amount - Line 9 16.2
Standard CD3.X399 DECIMAL_2 Closing Disclosure Page 3 - Adjustments for Items Unpaid by Seller (line 17) - Fee Amount - Line 10 16.2
Standard CD3.X404 DECIMAL_2 Closing Disclosure Page 3 - Adjustments for Items Unpaid by Seller (line 17) - Fee Amount - Line 11 16.2
Standard CD3.X409 DECIMAL_2 Closing Disclosure Page 3 - Adjustments for Items Unpaid by Seller (line 17) - Fee Amount - Line 12 16.2
Standard CD3.X414 DECIMAL_2 Closing Disclosure Page 3 - Adjustments for Items Unpaid by Seller (line 17) - Fee Amount - Line 13 16.2
Standard CD3.X419 DECIMAL_2 Closing Disclosure Page 3 - Adjustments for Items Unpaid by Seller (line 17) - Fee Amount - Line 14 16.2
Standard CD3.X424 DECIMAL_2 Closing Disclosure Page 3 - Adjustments for Items Unpaid by Seller (line 17) - Fee Amount - Line 15 16.2
Standard CD3.X429 DECIMAL_2 Closing Disclosure Page 3 - Adjustments for Items Unpaid by Seller (line 17) - Fee Amount - Line 16 16.2
Standard CD3.X434 DECIMAL_2 Closing Disclosure Page 3 - Adjustments for Items Unpaid by Seller (line 17) - Fee Amount - Line 17 16.2
Standard CD3.X439 DECIMAL_2 Closing Disclosure Page 3 - Adjustments for Items Unpaid by Seller (line 17) - Fee Amount - Line 18 16.2
Standard CD3.X444 DECIMAL_2 Closing Disclosure Page 3 - Due to Seller at Closing (line 3) - Fee Amount - Line 01 16.2
Standard CD3.X468 DECIMAL_2 Closing Disclosure Page 3 - Due to Seller at Closing (line 4) - Fee Amount - Line 01 16.2
Standard CD3.X492 DECIMAL_2 Closing Disclosure Page 3 - Due to Seller at Closing (line 5) - Fee Amount - Line 01 16.2
Standard CD3.X516 DECIMAL_2 Closing Disclosure Page 3 - Due to Seller at Closing (line 6) - Fee Amount - Line 01 16.2
Standard CD3.X540 DECIMAL_2 Closing Disclosure Page 3 - Due to Seller at Closing (line 7) - Fee Amount - Line 01 16.2
Standard CD3.X564 DECIMAL_2 Closing Disclosure Page 3 - Due to Seller at Closing (line 8) - Fee Amount - Line 01 16.2
Standard CD3.X568 DECIMAL_2 Closing Disclosure Page 3 - Due to Seller at Closing (line 8) - Fee Amount - Line 02 16.2
Standard CD3.X572 DECIMAL_2 Closing Disclosure Page 3 - Due to Seller at Closing (line 8) - Fee Amount - Line 03 16.2
Standard CD3.X576 DECIMAL_2 Closing Disclosure Page 3 - Due to Seller at Closing (line 8) - Fee Amount - Line 04 16.2
Standard CD3.X580 DECIMAL_2 Closing Disclosure Page 3 - Due to Seller at Closing (line 8) - Fee Amount - Line 05 16.2
Standard CD3.X584 DECIMAL_2 Closing Disclosure Page 3 - Due to Seller at Closing (line 8) - Fee Amount - Line 06 16.2
Standard CD3.X65 DECIMAL_2 Liability Amount 1 15.1
Standard CD3.X66 DECIMAL_2 Liability Amount 3 15.1
Standard CD3.X67 DECIMAL_2 Liability Amount 3 15.1
Standard CD3.X68 DECIMAL_2 Liability Amount 4 15.1
Standard CD3.X69 DECIMAL_2 Liability Amount 5 15.1
Standard CD3.X70 DECIMAL_2 Liability Amount 6 15.1
Standard CD3.X71 DECIMAL_2 Liability Amount 7 15.1
Standard CD3.X72 DECIMAL_2 Liability Amount 8 15.1
Standard CD3.X73 DECIMAL_2 Liability Amount 9 15.1
Standard CD3.X74 DECIMAL_2 Liability Amount 10 15.1
Standard CD3.X75 DECIMAL_2 Liability Amount 11 15.1
Standard CD3.X76 DECIMAL_2 Liability Amount 12 15.1
Standard CD3.X77 DECIMAL_2 Liability Amount 13 15.1
Standard CD3.X78 DECIMAL_2 Liability Amount 14 15.1
Standard CD3.X79 DECIMAL_2 Liability Amount 15 15.1
Standard CD3.X81 DECIMAL_2 Loan Amount 15.1
Standard CD3.X87 DECIMAL_2 LE Loan Amount 15.1 15.2
Standard CD3.X957 DECIMAL_2 Closing Disclosure Page 3 - Adjustments for Items Paid by Seller in Advance Other (line 16) - Fee Amount - Line 01 16.2
Standard CD3.X962 DECIMAL_2 Closing Disclosure Page 3 - Adjustments for Items Paid by Seller in Advance Other (line 16) - Fee Amount - Line 02 16.2
Standard CD3.X967 DECIMAL_2 Closing Disclosure Page 3 - Adjustments for Items Paid by Seller in Advance Other (line 16) - Fee Amount - Line 03 16.2
Standard CD3.X972 DECIMAL_2 Closing Disclosure Page 3 - Adjustments for Items Paid by Seller in Advance Other (line 16) - Fee Amount - Line 04 16.2
Standard CD3.X977 DECIMAL_2 Closing Disclosure Page 3 - Adjustments for Items Paid by Seller in Advance Other (line 16) - Fee Amount - Line 05 16.2
Standard CD3.X982 DECIMAL_2 Closing Disclosure Page 3 - Adjustments for Items Paid by Seller in Advance Other (line 16) - Fee Amount - Line 06 16.2
Standard CD3.X987 DECIMAL_2 Closing Disclosure Page 3 - Adjustments for Items Paid by Seller in Advance Other (line 16) - Fee Amount - Line 07 16.2
Standard CD3.X992 DECIMAL_2 Closing Disclosure Page 3 - Adjustments for Items Paid by Seller in Advance Other (line 16) - Fee Amount - Line 08 16.2
Standard CD3.X997 DECIMAL_2 Closing Disclosure Page 3 - Adjustments for Items Paid by Seller in Advance Other (line 16) - Fee Amount - Line 09 16.2
Standard CD3.XH87 DECIMAL_2 Decimal Value of Alternate LE Loan Amount From Latest Disclosure Tracking Log 15.2
Standard CD4.X2 STRING 3 Negative Amortization 15.1
Standard CD4.X30 STRING First Change Min Amount 15.1
Standard CD4.X34 STRING Maximum Payment Amount 15.1
Standard CD4.X49 INTEGER Maximum ARM Payment Amount 17.4
Standard CLOSING.SCTYISTRMTLAMINATTYFEEAMT DECIMAL_2 Ellie Mae Closing Document Override - LA Minimum Attorney Fee Amount 8.1
Standard CNVROPT.FEEAMT DECIMAL_2 Conversion Option Fee Amount 8.1
Standard CONST.X13 STRING 2 Construction Management Loan Info - Construction Only Amortization Type 16.3
Standard CPA.ADDLESCROW.1007AMOUNT DECIMAL_2 Additional Escrow Payment Collection - Line 1007 Amount 17.3
Standard CPA.ADDLESCROW.1008AMOUNT DECIMAL_2 Additional Escrow Payment Collection - Line 1008 Amount 17.3
Standard CPA.ADDLESCROW.1009AMOUNT DECIMAL_2 Additional Escrow Payment Collection - Line 1009 Amount 17.3
Standard CPA.ADDLESCROW.OPTION1AMOUNT DECIMAL_2 Additional Escrow Payment Collection - Additional Amount Value 1 17.3
Standard CPA.ADDLESCROW.OPTION1DESC STRING 5 Additional Escrow Payment Collection - Additional Amount Description 1 17.3
Standard CPA.ADDLESCROW.OPTION2AMOUNT DECIMAL_2 Additional Escrow Payment Collection - Additional Amount Value 2 17.3
Standard CPA.ADDLESCROW.OPTION2DESC STRING 5 Additional Escrow Payment Collection - Additional Amount Description 2 17.3
Standard CPA.ESCROWDISBURSE.1007AMOUNT DECIMAL_2 Escrow Disbursements - Line 1007 Amount 17.3
Standard CPA.ESCROWDISBURSE.1008AMOUNT DECIMAL_2 Escrow Disbursements - Line 1008 Amount 17.3
Standard CPA.ESCROWDISBURSE.1009AMOUNT DECIMAL_2 Escrow Disbursements - Line 1009 Amount 17.3
Standard CPA.ESCROWDISBURSE.OPTION1AMOUNT DECIMAL_2 Escrow Disbursements - Additional Amount Value 1 17.3
Standard CPA.ESCROWDISBURSE.OPTION1DESC STRING 5 Escrow Disbursements - Additional Amount Description 1 17.3
Standard CPA.ESCROWDISBURSE.OPTION2AMOUNT DECIMAL_2 Escrow Disbursements - Additional Amount Value 2 17.3
Standard CPA.ESCROWDISBURSE.OPTION2DESC STRING 5 Escrow Disbursements - Additional Amount Description 2 17.3
Standard CPA.FCD.1007AMOUNT DECIMAL_2 Final CD - Line 1007 Amount 17.3
Standard CPA.FCD.1008AMOUNT DECIMAL_2 Final CD - Line 1008 Amount 17.3
Standard CPA.FCD.1009AMOUNT DECIMAL_2 Final CD - Line 1009 Amount 17.3
Standard CPA.FCD.AGGADJAMOUNT DECIMAL_2 Final CD - Aggregate Adjustment Amount 17.3
Standard CPA.FCD.OPTION1AMOUNT DECIMAL_2 Final CD - Additional Amount Value 1 17.3
Standard CPA.FCD.OPTION1DESC STRING 5 Final CD - Additional Amount Description 1 17.3
Standard CPA.FCD.OPTION2AMOUNT DECIMAL_2 Final CD - Additional Amount Value 2 17.3
Standard CPA.FCD.OPTION2DESC STRING 5 Final CD - Additional Amount Description 2 17.3
Standard CPA.PAYMENTHISTORY.EXTRAPAYMENT.AMOUNT.01 DECIMAL_2 Correspondent Purchase Advice Payment History Calculator Extra Payment #1 Amount 17.3
Standard CPA.PAYMENTHISTORY.EXTRAPAYMENT.AMOUNT.02 DECIMAL_2 Correspondent Purchase Advice Payment History Calculator Extra Payment #2 Amount 17.3
Standard CPA.PAYMENTHISTORY.EXTRAPAYMENT.AMOUNT.03 DECIMAL_2 Correspondent Purchase Advice Payment History Calculator Extra Payment #3 Amount 17.3
Standard CPA.PAYMENTHISTORY.EXTRAPAYMENT.AMOUNT.04 DECIMAL_2 Correspondent Purchase Advice Payment History Calculator Extra Payment #4 Amount 17.3
Standard CPA.PAYMENTHISTORY.EXTRAPAYMENT.AMOUNT.05 DECIMAL_2 Correspondent Purchase Advice Payment History Calculator Extra Payment #5 Amount 17.3
Standard CPA.PAYMENTHISTORY.EXTRAPAYMENT.AMOUNT.06 DECIMAL_2 Correspondent Purchase Advice Payment History Calculator Extra Payment #6 Amount 17.3
Standard CPA.PAYMENTHISTORY.EXTRAPAYMENT.AMOUNT.07 DECIMAL_2 Correspondent Purchase Advice Payment History Calculator Extra Payment #7 Amount 17.3
Standard CPA.PAYMENTHISTORY.EXTRAPAYMENT.AMOUNT.08 DECIMAL_2 Correspondent Purchase Advice Payment History Calculator Extra Payment #8 Amount 17.3
Standard CPA.PAYMENTHISTORY.EXTRAPAYMENT.AMOUNT.09 DECIMAL_2 Correspondent Purchase Advice Payment History Calculator Extra Payment #9 Amount 17.3
Standard CPA.PAYMENTHISTORY.EXTRAPAYMENT.AMOUNT.10 DECIMAL_2 Correspondent Purchase Advice Payment History Calculator Extra Payment #10 Amount 17.3
Standard CPA.PAYMENTHISTORY.EXTRAPAYMENT.AMOUNT.11 DECIMAL_2 Correspondent Purchase Advice Payment History Calculator Extra Payment #11 Amount 17.3
Virtual DISCLOSEDCD.LOANSNAPSHOT_LOANAMOUNT STRING CD Loan Snapshot - Loan Amount 15.1
Virtual DISCLOSEDGFE.LOANAMOUNT STRING GFE Disclosure Loan Amount
Virtual DISCLOSEDGFE.SNAPSHOT.1266 INTEGER GFE Snapshot - Trans Details Amort Type GPM Yrs
Virtual DISCLOSEDGFE.SNAPSHOT.1267 DECIMAL_3 GFE Snapshot - Trans Details Amort Type GPM Rate
Virtual DISCLOSEDGFE.SNAPSHOT.1659 YN GFE Snapshot - Trans Details Amort Type Balloon
Virtual DISCLOSEDGFE.SNAPSHOT.608 STRING GFE Snapshot - Trans Details Amort Type
Virtual DISCLOSEDGFE.SNAPSHOT.994 STRING GFE Snapshot - Trans Details Amort Type Other Descr
Virtual DISCLOSEDGFE.SNAPSHOT.995 STRING GFE Snapshot - Trans Details Amort Type ARM Descr
Virtual DISCLOSEDGFE.SNAPSHOT.NEWHUD.X1005 DECIMAL_2 GFE Snapshot - Component Fee of Line 1101 Additional Line 1101a Whole POC Amount
Virtual DISCLOSEDGFE.SNAPSHOT.NEWHUD.X1006 DECIMAL_2 GFE Snapshot - Component Fee of Line 1101 Additional Line 1101b Whole POC Amount
Virtual DISCLOSEDGFE.SNAPSHOT.NEWHUD.X1008 DECIMAL_2 GFE Snapshot - Component Fee of Line 1101 Additional Line 1101d Whole POC Amount
Virtual DISCLOSEDGFE.SNAPSHOT.NEWHUD.X1009 DECIMAL_2 GFE Snapshot - Component Fee of Line 1101 Additional Line 1101e Whole POC Amount
Virtual DISCLOSEDGFE.SNAPSHOT.NEWHUD.X4 DECIMAL_2 GFE Snapshot - Initial Loan Amount
Virtual DISCLOSEDGFE.SNAPSHOT.NEWHUD.X999 DECIMAL_2 GFE Snapshot - Component Fee of Line 1101 Additional Line 1101f GFE Amount
Virtual DISCLOSEDLE.LOANSNAPSHOT_LOANAMOUNT STRING LE Loan Snapshot - Loan Amount 15.1
Virtual DISCLOSEDTIL.LOANAMOUNT STRING TIL Disclosure Loan Amount
Standard DISCLOSURE.X1078 YN 2 Refinance Subordination - The principal amount secured by the junior lien does not exceed $150,000.00 9.1
Standard DISCLOSURE.X1079 YN 2 Refinance Subordination - The principal amount secured by the Refinance Mortgage does not exceed the unpaid outstanding principal balance secured by the first mortgage deed of trust plus an amount to pay closing costs not exceeding $5,000.00. 9.1
Standard DISCLOSURE.X1098 DECIMAL_2 New York State Specific Disclosure - Money Lien - Mortgage Tax Amount 14.2
Standard DISCLOSURE.X1099 DECIMAL_2 New York State Specific Disclosure - Money Lien 1 - Mortgage Tax Amount 14.2
Standard DISCLOSURE.X1100 DECIMAL_2 New York State Specific Disclosure - Money Lien 2 - Mortgage Tax Amount 14.2
Standard DISCLOSURE.X1153 DECIMAL_2 Connecticut State Specific Disclosure - Amount of Initial Advance used for Acquisition Costs 17.1
Standard DISCLOSURE.X1175 DECIMAL_2 Connecticut State Specific Disclosure - Application Fee Amount 18.3
Standard DISCLOSURE.X1176 DECIMAL_2 Connecticut State Specific Disclosure - Credit Report Fee Amount 18.3
Standard DISCLOSURE.X1177 DECIMAL_2 Connecticut State Specific Disclosure - Appraisal Fee Amount 18.3
Standard DISCLOSURE.X1178 DECIMAL_2 Connecticut State Specific Disclosure - Other Fee 1 Amount 18.3
Standard DISCLOSURE.X1179 DECIMAL_2 Connecticut State Specific Disclosure - Other Fee 2 Amount 18.3
Standard DISCLOSURE.X1180 DECIMAL_2 Connecticut State Specific Disclosure - Other Fee 3 Amount 18.3
Standard DISCLOSURE.X1187 DECIMAL_2 State Disc - Application Fee Amount 18.3
Standard DISCLOSURE.X1188 DECIMAL_2 State Disc - Appraisal Fee Amount 18.3
Standard DISCLOSURE.X1189 DECIMAL_2 State Disc - Credit Report Fee Amount 18.3
Standard DISCLOSURE.X1190 DECIMAL_2 State Disc - Origination Fee Amount 18.3
Standard DISCLOSURE.X1191 DECIMAL_2 State Disc - Other Fee 1 Amount 18.3
Standard DISCLOSURE.X1192 DECIMAL_2 State Disc - Other Fee 2 Amount 18.3
Standard DISCLOSURE.X1193 DECIMAL_2 State Disc - Other Fee 3 Amount 18.3
Standard DISCLOSURE.X1194 DECIMAL_2 State Disc - Other Fee 4 Amount 18.3
Standard DISCLOSURE.X226 DECIMAL_2 State Disc - Low Front End Compensation Amount or Range
Standard DISCLOSURE.X227 DECIMAL_2 State Disc - Low Back End Compensation Amount or Range
Standard DISCLOSURE.X228 DECIMAL_2 State Disc - Low Total Compensation Amount or Range
Standard DISCLOSURE.X354 YN 2 State Disc - Negative Amortization Possible
Standard DISCLOSURE.X355 YN 2 State Disc - Negative Amortization Not Applicable
Standard DISCLOSURE.X356 YN 2 State Disc - Negative Amortization Changed
Standard DISCLOSURE.X357 YN 2 State Disc - Negative Amortization Unknown
Standard DISCLOSURE.X530 DECIMAL_2 State Disc - Settlement Service Fee Amount 1
Standard DISCLOSURE.X541 DECIMAL_2 State Disc - Trust Funds Amount
Standard DISCLOSURE.X566 YN 2 State Disc - Loan Has Neg Amortization Feature
Standard DISCLOSURE.X641 YN 2 State Disc - Loan amount has Changed
Standard DISCLOSURE.X647 DECIMAL_2 State Disc - Option 3. Borrower will add mortgage broker fees in the amount of
Standard DISCLOSURE.X648 DECIMAL_2 State Disc - Option 4. Third parties will pay mortgage broker fees on behalf of the Borrower in the amount of
Standard DISCLOSURE.X649 YN 2 State Disc - Option 1. Lender will pay mortgage broker directly an amount not to exceed
Standard DISCLOSURE.X650 YN 2 State Disc - Option 2. Borrower will pay mortgage broker fees in the amount of
Standard DISCLOSURE.X651 DECIMAL_2 State Disc - Option 1. Lender will pay mortgage broker directly an amount not to exceed fee
Standard DISCLOSURE.X652 DECIMAL_2 State Disc - Option 2. Borrower will pay mortgage broker fees in the amount of fee
Standard DISCLOSURE.X655 DECIMAL_2 State Disc - Lender Charge Amount
Standard DISCLOSURE.X675 DECIMAL_2 State Disc - Lender Charge Amount 2
Standard DISCLOSURE.X696 STRING 2 Anti-Steering Disclosure - Loan Option 1 - Negative Amortization?
Standard DISCLOSURE.X715 STRING 2 Anti-Steering Disclosure - Loan Option 3 - Negative Amortization?
Standard DISCLOSURE.X727 STRING 2 Anti-Steering Disclosure - Loan Option 4 - Negative Amortization?
Standard DISCLOSURE.X736 DECIMAL_2 Anti-Steering Disclosure - Loan Option 1 - Loan Origination Fee Borrower Paid Amount
Standard DISCLOSURE.X737 DECIMAL_2 Anti-Steering Disclosure - Loan Option 1 - Loan Origination Fee Seller Paid Amount
Standard DISCLOSURE.X738 DECIMAL_2 Anti-Steering Disclosure - Loan Option 1 - MortgageI Application Fee Bor Paid Amount
Standard DISCLOSURE.X739 DECIMAL_2 Anti-Steering Disclosure - Loan Option 1 - MortgageI Application Fee Seller Paid Amount
Standard DISCLOSURE.X740 DECIMAL_2 Anti-Steering Disclosure - Loan Option 1 - Processing Fee Bor Paid Amount
Standard DISCLOSURE.X741 DECIMAL_2 Anti-Steering Disclosure - Loan Option 1 - Processing Fee Seller Paid Amount
Standard DISCLOSURE.X742 DECIMAL_2 Anti-Steering Disclosure - Loan Option 1 - Underwriting Fee Bor Paid Amount
Standard DISCLOSURE.X743 DECIMAL_2 Anti-Steering Disclosure - Loan Option 1 - Underwriting Fee Seller Paid Amount
Standard DISCLOSURE.X745 DECIMAL_2 Anti-Steering Disclosure - Loan Option 1 - Mortgage Broker Fee Additional Amount
Standard DISCLOSURE.X746 DECIMAL_2 Anti-Steering Disclosure - Loan Option 1 - Mortgage Broker Fee Bor Paid Amount
Standard DISCLOSURE.X747 DECIMAL_2 Anti-Steering Disclosure - Loan Option 1 - Mortgage Broker Fee Seller Paid Amount
Standard DISCLOSURE.X749 DECIMAL_2 Anti-Steering Disclosure - Loan Option 1 - Mortgage Broker Compensation Additional Amount
Standard DISCLOSURE.X750 DECIMAL_2 Anti-Steering Disclosure - Loan Option 1 - Mortgage Broker Compensation Bor Paid Amount
Standard DISCLOSURE.X752 DECIMAL_2 Anti-Steering Disclosure - Loan Option 1 - User Defined Fee 801g Bor Paid Amount
Standard DISCLOSURE.X753 DECIMAL_2 Anti-Steering Disclosure - Loan Option 1 - User Defined Fee 801g Seller Paid Amount
Standard DISCLOSURE.X755 DECIMAL_2 Anti-Steering Disclosure - Loan Option 1 - User Defined Fee 801h Bor Paid Amount
Standard DISCLOSURE.X756 DECIMAL_2 Anti-Steering Disclosure - Loan Option 1 - User Defined Fee 801h Seller Paid Amount
Standard DISCLOSURE.X758 DECIMAL_2 Anti-Steering Disclosure - Loan Option 1 - User Defined Fee 801i Bor Paid Amount
Standard DISCLOSURE.X759 DECIMAL_2 Anti-Steering Disclosure - Loan Option 1 - User Defined Fee 801i Seller Paid Amount
Standard DISCLOSURE.X761 DECIMAL_2 Anti-Steering Disclosure - Loan Option 1 - User Defined Fee 801j Bor Paid Amount
Standard DISCLOSURE.X762 DECIMAL_2 Anti-Steering Disclosure - Loan Option 1 - User Defined Fee 801j Seller Paid Amount
Standard DISCLOSURE.X764 DECIMAL_2 Anti-Steering Disclosure - Loan Option 1 - User Defined Fee 801k Bor Paid Amount
Standard DISCLOSURE.X765 DECIMAL_2 Anti-Steering Disclosure - Loan Option 1 - User Defined Fee 801k Seller Paid Amount
Standard DISCLOSURE.X766 DECIMAL_2 Anti-Steering Disclosure - Loan Option 1 - Loan Discount Fee Bor Paid Amount
Standard DISCLOSURE.X767 DECIMAL_2 Anti-Steering Disclosure - Loan Option 1 - Loan Discount Fee Seller Paid Amount
Standard DISCLOSURE.X769 DECIMAL_2 Anti-Steering Disclosure - Loan Option 2 - Loan Origination Fee Borrower Paid Amount
Standard DISCLOSURE.X770 DECIMAL_2 Anti-Steering Disclosure - Loan Option 2 - Loan Origination Fee Seller Paid Amount
Standard DISCLOSURE.X771 DECIMAL_2 Anti-Steering Disclosure - Loan Option 2 - MortgageI Application Fee Bor Paid Amount
Standard DISCLOSURE.X772 DECIMAL_2 Anti-Steering Disclosure - Loan Option 2 - MortgageI Application Fee Seller Paid Amount
Standard DISCLOSURE.X773 DECIMAL_2 Anti-Steering Disclosure - Loan Option 2 - Processing Fee Bor Paid Amount
Standard DISCLOSURE.X774 DECIMAL_2 Anti-Steering Disclosure - Loan Option 2 - Processing Fee Seller Paid Amount
Standard DISCLOSURE.X775 DECIMAL_2 Anti-Steering Disclosure - Loan Option 2 - Underwriting Fee Bor Paid Amount
Standard DISCLOSURE.X776 DECIMAL_2 Anti-Steering Disclosure - Loan Option 2 - Underwriting Fee Seller Paid Amount
Standard DISCLOSURE.X778 DECIMAL_2 Anti-Steering Disclosure - Loan Option 2 - Mortgage Broker Fee Additional Amount
Standard DISCLOSURE.X779 DECIMAL_2 Anti-Steering Disclosure - Loan Option 2 - Mortgage Broker Fee Bor Paid Amount
Standard DISCLOSURE.X780 DECIMAL_2 Anti-Steering Disclosure - Loan Option 2 - Mortgage Broker Fee Seller Paid Amount
Standard DISCLOSURE.X782 DECIMAL_2 Anti-Steering Disclosure - Loan Option 2 - Mortgage Broker Compensation Additional Amount
Standard DISCLOSURE.X783 DECIMAL_2 Anti-Steering Disclosure - Loan Option 2 - Mortgage Broker Compensation Bor Paid Amount
Standard DISCLOSURE.X785 DECIMAL_2 Anti-Steering Disclosure - Loan Option 2 - User Defined Fee 801g Bor Paid Amount
Standard DISCLOSURE.X786 DECIMAL_2 Anti-Steering Disclosure - Loan Option 2 - User Defined Fee 801g Seller Paid Amount
Standard DISCLOSURE.X788 DECIMAL_2 Anti-Steering Disclosure - Loan Option 2 - User Defined Fee 801h Bor Paid Amount
Standard DISCLOSURE.X789 DECIMAL_2 Anti-Steering Disclosure - Loan Option 2 - User Defined Fee 801h Seller Paid Amount
Standard DISCLOSURE.X791 DECIMAL_2 Anti-Steering Disclosure - Loan Option 2 - User Defined Fee 801i Bor Paid Amount
Standard DISCLOSURE.X792 DECIMAL_2 Anti-Steering Disclosure - Loan Option 2 - User Defined Fee 801i Seller Paid Amount
Standard DISCLOSURE.X794 DECIMAL_2 Anti-Steering Disclosure - Loan Option 2 - User Defined Fee 801j Bor Paid Amount
Standard DISCLOSURE.X795 DECIMAL_2 Anti-Steering Disclosure - Loan Option 2 - User Defined Fee 801j Seller Paid Amount
Standard DISCLOSURE.X797 DECIMAL_2 Anti-Steering Disclosure - Loan Option 2 - User Defined Fee 801k Bor Paid Amount
Standard DISCLOSURE.X798 DECIMAL_2 Anti-Steering Disclosure - Loan Option 2 - User Defined Fee 801k Seller Paid Amount
Standard DISCLOSURE.X799 DECIMAL_2 Anti-Steering Disclosure - Loan Option 2 - Loan Discount Fee Bor Paid Amount
Standard DISCLOSURE.X800 DECIMAL_2 Anti-Steering Disclosure - Loan Option 2 - Loan Discount Fee Seller Paid Amount
Standard DISCLOSURE.X802 DECIMAL_2 Anti-Steering Disclosure - Loan Option 3 - Loan Origination Fee Borrower Paid Amount
Standard DISCLOSURE.X803 DECIMAL_2 Anti-Steering Disclosure - Loan Option 3 - Loan Origination Fee Seller Paid Amount
Standard DISCLOSURE.X804 DECIMAL_2 Anti-Steering Disclosure - Loan Option 3 - MortgageI Application Fee Bor Paid Amount
Standard DISCLOSURE.X805 DECIMAL_2 Anti-Steering Disclosure - Loan Option 3 - MortgageI Application Fee Seller Paid Amount
Standard DISCLOSURE.X806 DECIMAL_2 Anti-Steering Disclosure - Loan Option 3 - Processing Fee Bor Paid Amount
Standard DISCLOSURE.X807 DECIMAL_2 Anti-Steering Disclosure - Loan Option 3 - Processing Fee Seller Paid Amount
Standard DISCLOSURE.X808 DECIMAL_2 Anti-Steering Disclosure - Loan Option 3 - Underwriting Fee Bor Paid Amount
Standard DISCLOSURE.X809 DECIMAL_2 Anti-Steering Disclosure - Loan Option 3 - Underwriting Fee Seller Paid Amount
Standard DISCLOSURE.X811 DECIMAL_2 Anti-Steering Disclosure - Loan Option 3 - Mortgage Broker Fee Additional Amount
Standard DISCLOSURE.X812 DECIMAL_2 Anti-Steering Disclosure - Loan Option 3 - Mortgage Broker Fee Bor Paid Amount
Standard DISCLOSURE.X813 DECIMAL_2 Anti-Steering Disclosure - Loan Option 3 - Mortgage Broker Fee Seller Paid Amount
Standard DISCLOSURE.X815 DECIMAL_2 Anti-Steering Disclosure - Loan Option 3 - Mortgage Broker Compensation Additional Amount
Standard DISCLOSURE.X816 DECIMAL_2 Anti-Steering Disclosure - Loan Option 3 - Mortgage Broker Compensation Bor Paid Amount
Standard DISCLOSURE.X818 DECIMAL_2 Anti-Steering Disclosure - Loan Option 3 - User Defined Fee 801g Bor Paid Amount
Standard DISCLOSURE.X819 DECIMAL_2 Anti-Steering Disclosure - Loan Option 3 - User Defined Fee 801g Seller Paid Amount
Standard DISCLOSURE.X821 DECIMAL_2 Anti-Steering Disclosure - Loan Option 3 - User Defined Fee 801h Bor Paid Amount
Standard DISCLOSURE.X822 DECIMAL_2 Anti-Steering Disclosure - Loan Option 3 - User Defined Fee 801h Seller Paid Amount
Standard DISCLOSURE.X824 DECIMAL_2 Anti-Steering Disclosure - Loan Option 3 - User Defined Fee 801i Bor Paid Amount
Standard DISCLOSURE.X825 DECIMAL_2 Anti-Steering Disclosure - Loan Option 3 - User Defined Fee 801i Seller Paid Amount
Standard DISCLOSURE.X827 DECIMAL_2 Anti-Steering Disclosure - Loan Option 3 - User Defined Fee 801j Bor Paid Amount
Standard DISCLOSURE.X828 DECIMAL_2 Anti-Steering Disclosure - Loan Option 3 - User Defined Fee 801j Seller Paid Amount
Standard DISCLOSURE.X830 DECIMAL_2 Anti-Steering Disclosure - Loan Option 3 - User Defined Fee 801k Bor Paid Amount
Standard DISCLOSURE.X831 DECIMAL_2 Anti-Steering Disclosure - Loan Option 3 - User Defined Fee 801k Seller Paid Amount
Standard DISCLOSURE.X832 DECIMAL_2 Anti-Steering Disclosure - Loan Option 3 - Loan Discount Fee Bor Paid Amount
Standard DISCLOSURE.X833 DECIMAL_2 Anti-Steering Disclosure - Loan Option 3 - Loan Discount Fee Seller Paid Amount
Standard DISCLOSURE.X835 DECIMAL_2 Anti-Steering Disclosure - Loan Option 4 - Loan Origination Fee Borrower Paid Amount
Standard DISCLOSURE.X836 DECIMAL_2 Anti-Steering Disclosure - Loan Option 4 - Loan Origination Fee Seller Paid Amount
Standard DISCLOSURE.X837 DECIMAL_2 Anti-Steering Disclosure - Loan Option 4 - MortgageI Application Fee Bor Paid Amount
Standard DISCLOSURE.X838 DECIMAL_2 Anti-Steering Disclosure - Loan Option 4 - MortgageI Application Fee Seller Paid Amount
Standard DISCLOSURE.X839 DECIMAL_2 Anti-Steering Disclosure - Loan Option 4 - Processing Fee Bor Paid Amount
Standard DISCLOSURE.X840 DECIMAL_2 Anti-Steering Disclosure - Loan Option 4 - Processing Fee Seller Paid Amount
Standard DISCLOSURE.X841 DECIMAL_2 Anti-Steering Disclosure - Loan Option 4 - Underwriting Fee Bor Paid Amount
Standard DISCLOSURE.X842 DECIMAL_2 Anti-Steering Disclosure - Loan Option 4 - Underwriting Fee Seller Paid Amount
Standard DISCLOSURE.X844 DECIMAL_2 Anti-Steering Disclosure - Loan Option 4 - Mortgage Broker Fee Additional Amount
Standard DISCLOSURE.X845 DECIMAL_2 Anti-Steering Disclosure - Loan Option 4 - Mortgage Broker Fee Bor Paid Amount
Standard DISCLOSURE.X846 DECIMAL_2 Anti-Steering Disclosure - Loan Option 4 - Mortgage Broker Fee Seller Paid Amount
Standard DISCLOSURE.X848 DECIMAL_2 Anti-Steering Disclosure - Loan Option 4 - Mortgage Broker Compensation Additional Amount
Standard DISCLOSURE.X849 DECIMAL_2 Anti-Steering Disclosure - Loan Option 4 - Mortgage Broker Compensation Bor Paid Amount
Standard DISCLOSURE.X851 DECIMAL_2 Anti-Steering Disclosure - Loan Option 4 - User Defined Fee 801g Bor Paid Amount
Standard DISCLOSURE.X852 DECIMAL_2 Anti-Steering Disclosure - Loan Option 4 - User Defined Fee 801g Seller Paid Amount
Standard DISCLOSURE.X854 DECIMAL_2 Anti-Steering Disclosure - Loan Option 4 - User Defined Fee 801h Bor Paid Amount
Standard DISCLOSURE.X855 DECIMAL_2 Anti-Steering Disclosure - Loan Option 4 - User Defined Fee 801h Seller Paid Amount
Standard DISCLOSURE.X857 DECIMAL_2 Anti-Steering Disclosure - Loan Option 4 - User Defined Fee 801i Bor Paid Amount
Standard DISCLOSURE.X858 DECIMAL_2 Anti-Steering Disclosure - Loan Option 4 - User Defined Fee 801i Seller Paid Amount
Standard DISCLOSURE.X860 DECIMAL_2 Anti-Steering Disclosure - Loan Option 4 - User Defined Fee 801j Bor Paid Amount
Standard DISCLOSURE.X861 DECIMAL_2 Anti-Steering Disclosure - Loan Option 4 - User Defined Fee 801j Seller Paid Amount
Standard DISCLOSURE.X863 DECIMAL_2 Anti-Steering Disclosure - Loan Option 4 - User Defined Fee 801k Bor Paid Amount
Standard DISCLOSURE.X864 DECIMAL_2 Anti-Steering Disclosure - Loan Option 4 - User Defined Fee 801k Seller Paid Amount
Standard DISCLOSURE.X865 DECIMAL_2 Anti-Steering Disclosure - Loan Option 4 - Loan Discount Fee Bor Paid Amount
Standard DISCLOSURE.X866 DECIMAL_2 Anti-Steering Disclosure - Loan Option 4 - Loan Discount Fee Seller Paid Amount
Standard DISCLOSURE.X877 DECIMAL_2 State Disc - Broker Portion Of Total Fees Amount
Standard DISCLOSURE.X879 DECIMAL_2 State Disc - Lender Portion Of Total Fees Amount
Standard DISCLOSURE.X914 DECIMAL_2 Disclosure- CA Borrower Elects To Establish Escrow Account Amount
Standard DISCLOSURE.X925 DECIMAL_2 Disclosure-NV Origination Fee Charged Amount
Standard DISCLOSURE.X931 DECIMAL_2 Disclosure-NV Yield Spread Premium (YSP) Charged Amount
Standard DISCLOSURE.X937 DECIMAL_2 Disclosure-NV Service Rights Transfer Fee Charged Amount
Standard DISCLOSURE.X940 DECIMAL_2 Disclosure-NV Servicing Fee Charged Amount
Standard DISCLOSURE.X963 DECIMAL_3 Disclosure - AK - Federally-Subsidized Amount Percentage 8.1
Standard DISCLOSURE.X964 DECIMAL_2 Disclosure - AK - Federally-Subsidized Amount 8.1
Standard DISCLOSURE.X971 DECIMAL_2 Disclosure - AK - Other Amount 8.1
Standard DISCLOSURE.X977 DECIMAL_2 Anti-Steering Disclosure - Loan Option 1 - Discount Additional Amount 8.1
Standard DISCLOSURE.X979 DECIMAL_2 Anti-Steering Disclosure - Loan Option 1 - Discount Amount 8.1
Standard DISCLOSURE.X980 DECIMAL_2 Anti-Steering Disclosure - Loan Option 1 - Total of Origination Fees and Discount Amount 8.1
Standard DISCLOSURE.X981 DECIMAL_2 Anti-Steering Disclosure - Loan Option 2 - Discount Additional Amount 8.1
Standard DISCLOSURE.X983 DECIMAL_2 Anti-Steering Disclosure - Loan Option 2 - Discount Amount 8.1
Standard DISCLOSURE.X984 DECIMAL_2 Anti-Steering Disclosure - Loan Option 2 - Total of Origination Fees and Discount Amount 8.1
Standard DISCLOSURE.X985 DECIMAL_2 Anti-Steering Disclosure - Loan Option 3 - Discount Additional Amount 8.1
Standard DISCLOSURE.X987 DECIMAL_2 Anti-Steering Disclosure - Loan Option 3 - Discount Amount 8.1
Standard DISCLOSURE.X988 DECIMAL_2 Anti-Steering Disclosure - Loan Option 3 - Total of Origination Fees and Discount Amount 8.1
Standard DISCLOSURE.X989 DECIMAL_2 Anti-Steering Disclosure - Loan Option 4 - Discount Additional Amount 8.1
Standard DISCLOSURE.X991 DECIMAL_2 Anti-Steering Disclosure - Loan Option 4 - Discount Amount 8.1
Standard DISCLOSURE.X992 DECIMAL_2 Anti-Steering Disclosure - Loan Option 4 - Total of Origination Fees and Discount Amount 8.1
Standard DISCLOSURE.X993 DECIMAL_2 Disclosure-NY New Money Amount 8.1
Standard DISCLOSURE.X994 DECIMAL_2 Disclosure-NY Previous Mortgage Amount 1 8.1
Standard DISCLOSURE.X995 DECIMAL_2 Disclosure-NY Previous Mortgage Amount 2 8.1
Virtual DOCS.CLOSING.SCTYISTRMTLAMINATTYFEEAMT DECIMAL_2 Closing Docs - LA Minimum Attorney Fee Amount 8.1
Standard EEM.X11 DECIMAL_2 EEM Item 4 Actual Amount
Standard EEM.X12 DECIMAL_2 EEM Item 4 FHA Allowed Amount
Standard EEM.X14 DECIMAL_2 EEM Item 5 Actual Amount
Standard EEM.X15 DECIMAL_2 EEM Item 5 FHA Allowed Amount
Standard EEM.X17 DECIMAL_2 EEM Item 6 Actual Amount
Standard EEM.X18 DECIMAL_2 EEM Item 6 FHA Allowed Amount
Standard EEM.X2 DECIMAL_2 EEM Item 1 Actual Amount
Standard EEM.X20 DECIMAL_2 EEM Item 7 Actual Amount
Standard EEM.X21 DECIMAL_2 EEM Item 7 FHA Allowed Amount
Standard EEM.X23 DECIMAL_2 EEM Item 8 Actual Amount
Standard EEM.X24 DECIMAL_2 EEM Item 8 FHA Allowed Amount
Standard EEM.X26 DECIMAL_2 EEM Item 9 Actual Amount
Standard EEM.X27 DECIMAL_2 EEM Item 9 FHA Allowed Amount
Standard EEM.X29 DECIMAL_2 EEM Item 10 Actual Amount
Standard EEM.X3 DECIMAL_2 EEM Item 1 FHA Allowed Amount
Standard EEM.X30 DECIMAL_2 EEM Item 10 FHA Allowed Amount
Standard EEM.X32 DECIMAL_2 EEM Item 11 Actual Amount
Standard EEM.X33 DECIMAL_2 EEM Item 11 FHA Allowed Amount
Standard EEM.X35 DECIMAL_2 EEM Item 12 Actual Amount
Standard EEM.X36 DECIMAL_2 EEM Item 41 FHA Allowed Amount
Standard EEM.X38 DECIMAL_2 EEM Item 13 Actual Amount
Standard EEM.X39 DECIMAL_2 EEM Item 13 FHA Allowed Amount
Standard EEM.X41 DECIMAL_2 EEM Item 14 Actual Amount
Standard EEM.X42 DECIMAL_2 EEM Item 14 FHA Allowed Amount
Standard EEM.X44 DECIMAL_2 EEM Item 15 Actual Amount
Standard EEM.X45 DECIMAL_2 EEM Item 15 FHA Allowed Amount
Standard EEM.X47 DECIMAL_2 EEM Item 16 Actual Amount
Standard EEM.X48 DECIMAL_2 EEM Item 16 FHA Allowed Amount
Standard EEM.X5 DECIMAL_2 EEM Item 2 Actual Amount
Standard EEM.X50 DECIMAL_2 EEM Item 17 Actual Amount
Standard EEM.X51 DECIMAL_2 EEM Item 17 FHA Allowed Amount
Standard EEM.X53 DECIMAL_2 EEM Item 18 Actual Amount
Standard EEM.X54 DECIMAL_2 EEM Item 18 FHA Allowed Amount
Standard EEM.X56 DECIMAL_2 EEM Item 19 Actual Amount
Standard EEM.X57 DECIMAL_2 EEM Item 19 FHA Allowed Amount
Standard EEM.X59 DECIMAL_2 EEM Item 20 Actual Amount
Standard EEM.X6 DECIMAL_2 EEM Item 2 FHA Allowed Amount
Standard EEM.X60 DECIMAL_2 EEM Item 20 FHA Allowed Amount
Standard EEM.X61 DECIMAL_2 EEM Total Actual Amount
Standard EEM.X62 DECIMAL_2 EEM Total FHA Allowed Amount
Standard EEM.X73 DECIMAL_2 EEM Maximum Amount of EE Improvement Cost Per The EEM Calculator in FHA Connection (Note 3) 8.1
Standard EEM.X74 DECIMAL_2 EEM Lesser of C1 or C2 (This is The Cost-Effective Energy Package And The Amount That May be Added to the Base Loan Amount) (Note 4) 8.1
Standard EEM.X75 DECIMAL_2 EEM Base Loan Amount From Loan Transmittal 8.1
Standard EEM.X77 DECIMAL_2 EEM Total Base EEM Loan Amount (D1 + D2 + D3) 8.1
Standard EEM.X79 DECIMAL_2 EEM Total Combined Loan Amount (D4 + D5) (Note: Only Whole Dollar Amounts May be Insured by FHA) 8.1
Standard EEM.X8 DECIMAL_2 EEM Item 3 Actual Amount
Standard EEM.X80 DECIMAL_2 EEM Mortgage Amount Used for Qualifying Ratios - D1 8.1
Standard EEM.X81 DECIMAL_2 EEM Mortgage Amount Used for Qualifying Ratios - UFMIP Based on D1 8.1
Standard EEM.X82 DECIMAL_2 EEM Mortgage Amount Used for Qualifying Ratios 8.1
Standard EEM.X9 DECIMAL_2 EEM Item 3 FHA Allowed Amount
Standard FICC.X14 DECIMAL_2 Informed Consumer Choice Conventional Mortgage Amount 18.2
Standard FICC.X2 DECIMAL_2 Informed Consumer Choice FHA Mortgage Amount 18.2
Standard FICC.X3 DECIMAL_2 Informed Consumer Choice FHA Mortgage Amount with UMIP 18.2
Standard FL0016 DECIMAL_2 Liability Payoff Amount
Standard FM1084.X101 DECIMAL_2 1084B/1065 Borr Amort/Casualty Loss
Standard FM1084.X110 DECIMAL_2 1084B/1120s Borr Amort/Casualty Loss
Standard FM1084.X122 DECIMAL_2 1084B/1120 Borr Amort/Casualty Loss
Standard FM1084.X139 DECIMAL_2 1084B/1065 Co-Borr Amort/Casualty Loss
Standard FM1084.X147 DECIMAL_2 1084B/1120s Co-Borr Amort/Casualty Loss
Standard FM1084.X158 DECIMAL_2 1084B/1120 Co-Borr Amort/Casualty Loss
Standard FM1084.X178 DECIMAL_2 1084A/1040 Borr Sched C Net Profit or (Loss) First Year Amount 16.2
Standard FM1084.X179 DECIMAL_2 1084A/1040 Borr Sched C Net Profit or (Loss) Second Year Amount 16.2
Standard FM1084.X180 DECIMAL_2 1084A/1040 Borr Sched C Net Farm Profit or (Loss) First Year Amount 16.2
Standard FM1084.X181 DECIMAL_2 1084A/1040 Borr Sched C Net Farm Profit or (Loss) Second Year Amount 16.2
Standard FM1084.X30 DECIMAL_2 1084A/2106 Borr Sched C Amort/Casualty Loss
Standard FM1084.X36 DECIMAL_2 1084A/6252 Borr Sched E Amort/Casualty Loss
Standard FM1084.X41 DECIMAL_2 1084A/6252 Borr Sched F Amort/Casualty Loss/Dell
Standard FM1084.X73 DECIMAL_2 1084A/2106 Co-Borr Sched C Amort/Casualty Loss
Standard FM1084.X79 DECIMAL_2 1084A/6252 Co-Borr Sched E Amort/Casualty Loss
Standard FM1084.X84 DECIMAL_2 1084A/6252 Co-Borr Sched F Amort/Casualty Loss/Depl
Standard FV.X324 DATE Good Faith Amount Initial LE 1 15.1
Standard FV.X325 DECIMAL_2 Good Faith Amount Initial LE 2 15.1
Standard FV.X326 DECIMAL_2 Good Faith Amount LE 2 15.1
Standard FV.X327 DECIMAL_2 Good Faith Amount CD 2 15.1
Standard FV.X328 DECIMAL_2 Good Faith Amount Itemization 2 15.1
Standard FV.X329 DECIMAL_2 Good Faith Amount Initial LE 3 15.1
Standard FV.X330 DECIMAL_2 Good Faith Amount LE 3 15.1
Standard FV.X331 DECIMAL_2 Good Faith Amount CD 3 15.1
Standard FV.X332 DECIMAL_2 Good Faith Amount Itemization 3 15.1
Standard FV.X333 DECIMAL_2 Good Faith Amount Initial LE 4 15.1
Standard FV.X334 DECIMAL_2 Good Faith Amount LE 4 15.1
Standard FV.X335 DECIMAL_2 Good Faith Amount CD 4 15.1
Standard FV.X336 DECIMAL_2 Good Faith Amount Itemization 4 15.1
Standard FV.X337 DECIMAL_2 Good Faith Amount Initial LE 5 15.1
Standard FV.X338 DECIMAL_2 Good Faith Amount LE 5 15.1
Standard FV.X339 DECIMAL_2 Good Faith Amount CD 5 15.1
Standard FV.X340 DECIMAL_2 Good Faith Amount Itemization 5 15.1
Standard FV.X341 DECIMAL_2 Good Faith Amount Initial LE 6 15.1
Standard FV.X342 DECIMAL_2 Good Faith Amount LE 6 15.1
Standard FV.X343 DECIMAL_2 Good Faith Amount CD 6 15.1
Standard FV.X344 DECIMAL_2 Good Faith Amount Itemization 6 15.1
Standard FV.X346 DECIMAL_2 Good Faith Amount CD 8 15.1
Standard FV.X348 DECIMAL_2 Tolerance Cure Required Cure Amount 15.1
Standard FV.X366 DECIMAL_2 Tolerance Cure Applied Cure Amount 15.1
Standard HELOC.PARTICIPATIONFEES DECIMAL_2 HELOC Participation Fees: The total amount(s) payable at or before account opening for participation in an open-end credit plan. 15.2
Standard HELOC.TRANSACTIONFEES DECIMAL_2 HELOC Transaction Fees: The total amount of fees charged each time a withdrawal or other specified transaction is made on a line of credit, such as a balance transfer fee or a cash advance fee. 15.2
Standard HMDA.X31 DECIMAL_2 HMDA Loan Amount 17.2
Standard HMDA.X38 STRING 2 Other Non-Amortization 17.2
Standard HMDA.X93 DECIMAL_2 HMDA Repurchased Loan Amount 17.3
Standard HUD64 DECIMAL_2 HUD Biweekly Escrow Payment - Total Biweekly Payment Amount 9.1
Virtual ISPAY.ALL.0.AMT DECIMAL_2 Interim Servicing - Amount (Most Recent Payment) 17.1
Virtual ISPAY.ALL.1.AMT DECIMAL_2 Interim Servicing - Amount (Previous 1 Payment) 17.1
Virtual ISPAY.ALL.2.AMT DECIMAL_2 Interim Servicing - Amount (Previous 2 Payment) 17.1
Virtual ISPAY.ALL.3.AMT DECIMAL_2 Interim Servicing - Amount (Previous 3 Payment) 17.1
Virtual ISPAY.ALL.4.AMT DECIMAL_2 Interim Servicing - Amount (Previous 4 Payment) 17.1
Virtual ISPAY.ESCROW.0.AMT DECIMAL_2 Interim Servicing - Disbursement Amount (Most Recent Escrow Payment)
Virtual ISPAY.ESCROW.1.AMT DECIMAL_2 Interim Servicing - Disbursement Amount (Previous 1 Escrow Payment)
Virtual ISPAY.ESCROW.2.AMT DECIMAL_2 Interim Servicing - Disbursement Amount (Previous 2 Escrow Payment)
Virtual ISPAY.ESCROW.3.AMT DECIMAL_2 Interim Servicing - Disbursement Amount (Previous 3 Escrow Payment)
Virtual ISPAY.ESCROW.4.AMT DECIMAL_2 Interim Servicing - Disbursement Amount (Previous 4 Escrow Payment)
Virtual ISPAY.INTEREST.0.AMT DECIMAL_2 Interim Servicing - Interest Amount (Most Recent Escrow Interest Payment)
Virtual ISPAY.INTEREST.1.AMT DECIMAL_2 Interim Servicing - Interest Amount (Previous 1 Escrow Interest Payment)
Virtual ISPAY.INTEREST.2.AMT DECIMAL_2 Interim Servicing - Interest Amount (Previous 2 Escrow Interest Payment)
Virtual ISPAY.INTEREST.3.AMT DECIMAL_2 Interim Servicing - Interest Amount (Previous 3 Escrow Interest Payment)
Virtual ISPAY.INTEREST.4.AMT DECIMAL_2 Interim Servicing - Interest Amount (Previous 4 Escrow Interest Payment)
Virtual ISPAY.OTHER.0.AMT DECIMAL_2 Interim Servicing - Amount (Most Recent Other Payment)
Virtual ISPAY.OTHER.1.AMT DECIMAL_2 Interim Servicing - Amount (Previous 1 Other Payment)
Virtual ISPAY.OTHER.2.AMT DECIMAL_2 Interim Servicing - Amount (Previous 2 Other Payment)
Virtual ISPAY.OTHER.3.AMT DECIMAL_2 Interim Servicing - Amount (Previous 3 Other Payment)
Virtual ISPAY.OTHER.4.AMT DECIMAL_2 Interim Servicing - Amount (Previous 4 Other Payment)
Virtual ISPAY.OTHER.NEXTDISBURSEMENTAMOUNT DECIMAL_2 Interim Servicing - Next Disbursement Amount
Virtual ISPAY.PAYMENT.0.AMOUNT DECIMAL_2 Interim Servicing - Check/Transaction/Lock Box/Wire Amount (Most Recent Mortgage Payment)
Virtual ISPAY.PAYMENT.0.AMTDUE DECIMAL_2 Interim Servicing - Total Amount Due (Most Recent Mortgage Payment)
Virtual ISPAY.PAYMENT.0.AMTRECE DECIMAL_2 Interim Servicing - Total Amount Received (Most Recent Mortgage Payment)
Virtual ISPAY.PAYMENT.1.AMOUNT DECIMAL_2 Interim Servicing - Check/Transaction/Lock Box/Wire Amount (Previous 1 Mortgage Payment)
Virtual ISPAY.PAYMENT.1.AMTDUE DECIMAL_2 Interim Servicing - Total Amount Due (Previous 1 Mortgage Payment)
Virtual ISPAY.PAYMENT.1.AMTRECE DECIMAL_2 Interim Servicing - Total Amount Received (Previous 1 Mortgage Payment)
Virtual ISPAY.PAYMENT.2.AMOUNT DECIMAL_2 Interim Servicing - Check/Transaction/Lock Box/Wire Amount (Previous 2 Mortgage Payment)
Virtual ISPAY.PAYMENT.2.AMTDUE DECIMAL_2 Interim Servicing - Total Amount Due (Previous 2 Mortgage Payment)
Virtual ISPAY.PAYMENT.2.AMTRECE DECIMAL_2 Interim Servicing - Total Amount Received (Previous 2 Mortgage Payment)
Virtual ISPAY.PAYMENT.3.AMOUNT DECIMAL_2 Interim Servicing - Check/Transaction/Lock Box/Wire Amount (Previous 3 Mortgage Payment)
Virtual ISPAY.PAYMENT.3.AMTDUE DECIMAL_2 Interim Servicing - Total Amount Due (Previous 3 Mortgage Payment)
Virtual ISPAY.PAYMENT.3.AMTRECE DECIMAL_2 Interim Servicing - Total Amount Received (Previous 3 Mortgage Payment)
Virtual ISPAY.PAYMENT.4.AMOUNT DECIMAL_2 Interim Servicing - Check/Transaction/Lock Box/Wire Amount (Previous 4 Mortgage Payment)
Virtual ISPAY.PAYMENT.4.AMTDUE DECIMAL_2 Interim Servicing - Total Amount Due (Previous 4 Mortgage Payment)
Virtual ISPAY.PAYMENT.4.AMTRECE DECIMAL_2 Interim Servicing - Total Amount Received (Previous 4 Mortgage Payment)
Virtual ISPAY.PRINCIPAL.0.AMT DECIMAL_2 Interim Servicing - Principal Disbursement Amount (Most Recent Principal Disbursement) 17.1
Virtual ISPAY.PRINCIPAL.1.AMT DECIMAL_2 Interim Servicing - Principal Disbursement Amount (Previous 1 Principal Disbursement) 17.1
Virtual ISPAY.PRINCIPAL.2.AMT DECIMAL_2 Interim Servicing - Principal Disbursement Amount (Previous 2 Principal Disbursement) 17.1
Virtual ISPAY.PRINCIPAL.3.AMT DECIMAL_2 Interim Servicing - Principal Disbursement Amount (Previous 3 Principal Disbursement) 17.1
Virtual ISPAY.PRINCIPAL.4.AMT DECIMAL_2 Interim Servicing - Principal Disbursement Amount (Previous 4 Principal Disbursement) 17.1
Standard LATEFEESETTING.X17 DECIMAL_2 Correspondent Loan Status - External Late Fee Settings - Amount Value 18.2
Standard LCP.X10 DECIMAL_2 Loan Compensation Plan - Wholesale/Broker Plan Details - Base Plan Maximum Amount 8.1
Standard LCP.X12 DECIMAL_2 Loan Compensation Plan - Wholesale/Broker Plan Details - Adjusted Plan Additional Amount 8.1
Standard LCP.X13 DECIMAL_2 Loan Compensation Plan - Wholesale/Broker Plan Details - Adjusted Plan Amount 8.1
Standard LCP.X14 DECIMAL_2 Loan Compensation Plan - Wholesale/Broker Plan Details - Net Adjusted Amount 8.1
Standard LCP.X17 STRING 2 Loan Compensation Plan - Wholesale/Broker Plan Details - Loan Amount Type 8.1
Standard LCP.X24 STRING 2 Loan Compensation Plan - Loan Officer Plan Details - Loan Amount Type 8.1
Standard LCP.X26 DECIMAL_2 Loan Compensation Plan - Loan Officer Plan Details - Base Plan Additional Amount 8.1
Standard LCP.X27 DECIMAL_2 Loan Compensation Plan - Loan Officer Plan Details - Base Plan Amount 8.1
Standard LCP.X28 DECIMAL_2 Loan Compensation Plan - Loan Officer Plan Details - Base Plan Minimum Amount 8.1
Standard LCP.X29 DECIMAL_2 Loan Compensation Plan - Loan Officer Plan Details - Base Plan Maximum Amount 8.1
Standard LCP.X31 DECIMAL_2 Loan Compensation Plan - Loan Officer Plan Details - Bonus Comp Additional Amount 8.1
Standard LCP.X32 DECIMAL_2 Loan Compensation Plan - Loan Officer Plan Details - Bonus Comp Amount 8.1
Standard LCP.X34 DECIMAL_2 Loan Compensation Plan - Loan Officer Plan Details - Adjusted Plan Additional Amount 8.1
Standard LCP.X35 DECIMAL_2 Loan Compensation Plan - Loan Officer Plan Details - Adjusted Plan Amount 8.1
Standard LCP.X36 DECIMAL_2 Loan Compensation Plan - Loan Officer Plan Details - Net Adjusted Amount 8.1
Standard LCP.X7 DECIMAL_2 Loan Compensation Plan - Wholesale/Broker Plan Details - Base Plan Additional Amount 8.1
Standard LCP.X8 DECIMAL_2 Loan Compensation Plan - Wholesale/Broker Plan Details - Base Plan Amount 8.1
Standard LCP.X9 DECIMAL_2 Loan Compensation Plan - Wholesale/Broker Plan Details - Base Plan Minimum Amount 8.1
Standard LE1.X10 STRING 2 Loan Estimate - Loan Amount Can go or Goes 15.1
Standard LE1.X11 STRING 2 Loan Estimate - Loan Amount Can increase or Increases 15.1
Standard LE1.X45 INTEGER Loan Estimate - Projected Calculation - Column 1 - Mortgage Insurance Amount 15.1
Standard LE1.X46 INTEGER Loan Estimate - Projected Calculation - Column 1 - Estimated Escrow Amount 15.1
Standard LE1.X54 INTEGER Loan Estimate - Projected Calculation - Column 2 - Mortgage Insurance Amount 15.1
Standard LE1.X55 INTEGER Loan Estimate - Projected Calculation - Column 2 - Estimated Escrow Amount 15.1
Standard LE1.X63 INTEGER Loan Estimate - Projected Calculation - Column 3 - Mortgage Insurance Amount 15.1
Standard LE1.X64 INTEGER Loan Estimate - Projected Calculation - Column 3 - Estimated Escrow Amount 15.1
Standard LE1.X72 INTEGER Loan Estimate - Projected Calculation - Column 4 - Mortgage Insurance Amount 15.1
Standard LE1.X73 INTEGER Loan Estimate - Projected Calculation - Column 4 - Estimated Escrow Amount 15.1
Standard LE1.XD45 STRING Loan Estimate - Projected Calculation - Column 1 - Mortgage Insurance Amount UI Value 15.1
Standard LE1.XD46 STRING Loan Estimate - Projected Calculation - Column 1 - Estimated Escrow Amount UI Value 15.1
Standard LE1.XD54 STRING Loan Estimate - Projected Calculation - Column 2 - Mortgage Insurance Amount UI Value 15.1
Standard LE1.XD55 STRING Loan Estimate - Projected Calculation - Column 2 - Estimated Escrow Amount UI Value 15.1
Standard LE1.XD63 STRING Loan Estimate - Projected Calculation - Column 3 - Mortgage Insurance Amount UI Value 15.1
Standard LE1.XD64 STRING Loan Estimate - Projected Calculation - Column 3 - Estimated Escrow Amount UI Value 15.1
Standard LE1.XD72 STRING Loan Estimate - Projected Calculation - Column 4 - Mortgage Insurance Amount UI Value 15.1
Standard LE1.XD73 STRING Loan Estimate - Projected Calculation - Column 4 - Estimated Escrow Amount UI Value 15.1
Standard LE2.X10 DECIMAL_2 Loan Estimate - Adjustments and Other Credits Amount 3 15.1
Standard LE2.X100 INTEGER Loan Estimate - Seller Credit Amount 15.1
Standard LE2.X12 DECIMAL_2 Loan Estimate - Adjustments and Other Credits Amount 4 15.1
Standard LE2.X14 DECIMAL_2 Loan Estimate - Adjustments and Other Credits Amount 5 15.1
Standard LE2.X16 DECIMAL_2 Loan Estimate - Adjustments and Other Credits Amount 6 15.1
Standard LE2.X18 DECIMAL_2 Loan Estimate - Adjustments and Other Credits Amount 7 15.1
Standard LE2.X20 DECIMAL_2 Loan Estimate - Adjustments and Other Credits Amount 8 15.1
Standard LE2.X22 DECIMAL_2 Loan Estimate - Adjustments and Other Credits Amount 9 15.1
Standard LE2.X24 DECIMAL_2 Loan Estimate - Adjustments and Other Credits Amount 10 15.1
Standard LE2.X6 DECIMAL_2 Loan Estimate - Adjustments and Other Credits Amount 1 15.1
Standard LE2.X8 DECIMAL_2 Loan Estimate - Adjustments and Other Credits Amount 2 15.1
Standard LE2.XLCDV DECIMAL_2 Decimal Value of Lender Credit Amount 15.2
Standard LINK_4487 DECIMAL_2 Closed End Primary Mortgage Loan Amount Copied from Linked Loan 18.4
Standard LINK_4488 DECIMAL_2 Closed End Subordinate Mortgage Loan Amount - Copied from Linked Loan 18.4
Standard LINK_4489 DECIMAL_2 Heloc New Financing Not Linked Draw Amount - Copied from Linked Loan 18.4
Standard LINK_4493 DECIMAL_2 HELOC Amount Apply To Down Payment - Copied from Linked Loan 18.4
Virtual LOCKRATE.2953 STRING 4 Rate Lock - Lock Request Amort Type (Most Recent)
Virtual LOCKRATE.2954 DECIMAL_3 Rate Lock - Lock Request Amort Type GPM Rate (Most Recent)
Virtual LOCKRATE.2955 INTEGER Rate Lock - Lock Request Amort Type GPM Years (Most Recent)
Virtual LOCKRATE.2956 STRING Rate Lock - Lock Request Amort Type ARM Descr (Most Recent)
Virtual LOCKRATE.2957 STRING Rate Lock - Lock Request Amort Type Other Descr (Most Recent)
Virtual LOCKRATE.2965 DECIMAL_2 Rate Lock - Lock Request Loan Amount (Most Recent)
Virtual LOCKRATE.3035 DECIMAL_2 Rate Lock - Lock Request First Subordinate Amount (Most Recent)
Virtual LOCKRATE.3036 DECIMAL_2 Rate Lock - Lock Request Second Subordinate Amount (Most Recent)
Virtual LOCKRATE.3037 DECIMAL_2 Rate Lock - Lock Request Other Subordinate Amount (Most Recent)
Virtual LOCKRATE.3038 DECIMAL_2 Rate Lock - Lock Request Purchase Price Amount (Most Recent)
Virtual LOCKRATE.608 STRING 4 Rate Lock - Trans Details Amort Type (Most Recent)
Virtual LOCKRATE.CONFIRMED.2953 STRING 4 Rate Request - Lock Request Amort Type (Mostly Recent Confirmed)
Virtual LOCKRATE.CONFIRMED.2954 DECIMAL_3 Rate Request - Lock Request Amort Type GPM Rate (Mostly Recent Confirmed)
Virtual LOCKRATE.CONFIRMED.2955 INTEGER Rate Request - Lock Request Amort Type GPM Years (Mostly Recent Confirmed)
Virtual LOCKRATE.CONFIRMED.2956 STRING Rate Request - Lock Request Amort Type ARM Descr (Mostly Recent Confirmed)
Virtual LOCKRATE.CONFIRMED.2957 STRING Rate Request - Lock Request Amort Type Other Descr (Mostly Recent Confirmed)
Virtual LOCKRATE.CONFIRMED.2965 DECIMAL_2 Rate Request - Lock Request Loan Amount (Mostly Recent Confirmed)
Virtual LOCKRATE.CONFIRMED.3035 DECIMAL_2 Rate Request - Lock Request First Subordinate Amount (Mostly Recent Confirmed)
Virtual LOCKRATE.CONFIRMED.3036 DECIMAL_2 Rate Request - Lock Request Second Subordinate Amount (Mostly Recent Confirmed)
Virtual LOCKRATE.CONFIRMED.3037 DECIMAL_2 Rate Request - Lock Request Other Subordinate Amount (Mostly Recent Confirmed)
Virtual LOCKRATE.CONFIRMED.3038 DECIMAL_2 Rate Request - Lock Request Purchase Price Amount (Mostly Recent Confirmed)
Virtual LOCKRATE.CONFIRMED.608 STRING 4 Rate Request - Trans Details Amort Type (Mostly Recent Confirmed)
Virtual LOCKRATE.DENIED.2953 STRING 4 Rate Lock Denial - Lock Request Amort Type (Most Recent) 8.1
Virtual LOCKRATE.DENIED.2954 DECIMAL_3 Rate Lock Denial - Lock Request Amort Type GPM Rate (Most Recent) 8.1
Virtual LOCKRATE.DENIED.2955 INTEGER Rate Lock Denial - Lock Request Amort Type GPM Years (Most Recent) 8.1
Virtual LOCKRATE.DENIED.2956 STRING Rate Lock Denial - Lock Request Amort Type ARM Descr (Most Recent) 8.1
Virtual LOCKRATE.DENIED.2957 STRING Rate Lock Denial - Lock Request Amort Type Other Descr (Most Recent) 8.1
Virtual LOCKRATE.DENIED.2965 DECIMAL_2 Rate Lock Denial - Lock Request Loan Amount (Most Recent) 8.1
Virtual LOCKRATE.DENIED.3035 DECIMAL_2 Rate Lock Denial - Lock Request First Subordinate Amount (Most Recent) 8.1
Virtual LOCKRATE.DENIED.3036 DECIMAL_2 Rate Lock Denial - Lock Request Second Subordinate Amount (Most Recent) 8.1
Virtual LOCKRATE.DENIED.3037 DECIMAL_2 Rate Lock Denial - Lock Request Other Subordinate Amount (Most Recent) 8.1
Virtual LOCKRATE.DENIED.3038 DECIMAL_2 Rate Lock Denial - Lock Request Purchase Price Amount (Most Recent) 8.1
Virtual LOCKRATE.DENIED.608 STRING 4 Rate Lock Denial - Trans Details Amort Type (Most Recent) 8.1
Virtual LOCKRATE.REQUEST.2953 STRING 4 Rate Lock Request - Lock Request Amort Type (Most Recent) 8.1
Virtual LOCKRATE.REQUEST.2954 DECIMAL_3 Rate Lock Request - Lock Request Amort Type GPM Rate (Most Recent) 8.1
Virtual LOCKRATE.REQUEST.2955 INTEGER Rate Lock Request - Lock Request Amort Type GPM Years (Most Recent) 8.1
Virtual LOCKRATE.REQUEST.2956 STRING Rate Lock Request - Lock Request Amort Type ARM Descr (Most Recent) 8.1
Virtual LOCKRATE.REQUEST.2957 STRING Rate Lock Request - Lock Request Amort Type Other Descr (Most Recent) 8.1
Virtual LOCKRATE.REQUEST.2965 DECIMAL_2 Rate Lock Request - Lock Request Loan Amount (Most Recent) 8.1
Virtual LOCKRATE.REQUEST.3035 DECIMAL_2 Rate Lock Request - Lock Request First Subordinate Amount (Most Recent) 8.1
Virtual LOCKRATE.REQUEST.3036 DECIMAL_2 Rate Lock Request - Lock Request Second Subordinate Amount (Most Recent) 8.1
Virtual LOCKRATE.REQUEST.3037 DECIMAL_2 Rate Lock Request - Lock Request Other Subordinate Amount (Most Recent) 8.1
Virtual LOCKRATE.REQUEST.3038 DECIMAL_2 Rate Lock Request - Lock Request Purchase Price Amount (Most Recent) 8.1
Virtual LOCKRATE.REQUEST.608 STRING 4 Rate Lock Request - Trans Details Amort Type (Most Recent) 8.1
Virtual LOCKRATE1.2953 STRING 4 Rate Lock - Lock Request Amort Type (Previous 1)
Virtual LOCKRATE1.2954 DECIMAL_3 Rate Lock - Lock Request Amort Type GPM Rate (Previous 1)
Virtual LOCKRATE1.2955 INTEGER Rate Lock - Lock Request Amort Type GPM Years (Previous 1)
Virtual LOCKRATE1.2956 STRING Rate Lock - Lock Request Amort Type ARM Descr (Previous 1)
Virtual LOCKRATE1.2957 STRING Rate Lock - Lock Request Amort Type Other Descr (Previous 1)
Virtual LOCKRATE1.2965 DECIMAL_2 Rate Lock - Lock Request Loan Amount (Previous 1)
Virtual LOCKRATE1.3035 DECIMAL_2 Rate Lock - Lock Request First Subordinate Amount (Previous 1)
Virtual LOCKRATE1.3036 DECIMAL_2 Rate Lock - Lock Request Second Subordinate Amount (Previous 1)
Virtual LOCKRATE1.3037 DECIMAL_2 Rate Lock - Lock Request Other Subordinate Amount (Previous 1)
Virtual LOCKRATE1.3038 DECIMAL_2 Rate Lock - Lock Request Purchase Price Amount (Previous 1)
Virtual LOCKRATE1.608 STRING 4 Rate Lock - Trans Details Amort Type (Previous 1)
Virtual LOCKRATE1.DENIED.2953 STRING 4 Rate Lock Denial - Lock Request Amort Type (Previous 1) 8.1
Virtual LOCKRATE1.DENIED.2954 DECIMAL_3 Rate Lock Denial - Lock Request Amort Type GPM Rate (Previous 1) 8.1
Virtual LOCKRATE1.DENIED.2955 INTEGER Rate Lock Denial - Lock Request Amort Type GPM Years (Previous 1) 8.1
Virtual LOCKRATE1.DENIED.2956 STRING Rate Lock Denial - Lock Request Amort Type ARM Descr (Previous 1) 8.1
Virtual LOCKRATE1.DENIED.2957 STRING Rate Lock Denial - Lock Request Amort Type Other Descr (Previous 1) 8.1
Virtual LOCKRATE1.DENIED.2965 DECIMAL_2 Rate Lock Denial - Lock Request Loan Amount (Previous 1) 8.1
Virtual LOCKRATE1.DENIED.3035 DECIMAL_2 Rate Lock Denial - Lock Request First Subordinate Amount (Previous 1) 8.1
Virtual LOCKRATE1.DENIED.3036 DECIMAL_2 Rate Lock Denial - Lock Request Second Subordinate Amount (Previous 1) 8.1
Virtual LOCKRATE1.DENIED.3037 DECIMAL_2 Rate Lock Denial - Lock Request Other Subordinate Amount (Previous 1) 8.1
Virtual LOCKRATE1.DENIED.3038 DECIMAL_2 Rate Lock Denial - Lock Request Purchase Price Amount (Previous 1) 8.1
Virtual LOCKRATE1.DENIED.608 STRING 4 Rate Lock Denial - Trans Details Amort Type (Previous 1) 8.1
Virtual LOCKRATE1.REQUEST.2953 STRING 4 Rate Lock Request - Lock Request Amort Type (Previous 1) 8.1
Virtual LOCKRATE1.REQUEST.2954 DECIMAL_3 Rate Lock Request - Lock Request Amort Type GPM Rate (Previous 1) 8.1
Virtual LOCKRATE1.REQUEST.2955 INTEGER Rate Lock Request - Lock Request Amort Type GPM Years (Previous 1) 8.1
Virtual LOCKRATE1.REQUEST.2956 STRING Rate Lock Request - Lock Request Amort Type ARM Descr (Previous 1) 8.1
Virtual LOCKRATE1.REQUEST.2957 STRING Rate Lock Request - Lock Request Amort Type Other Descr (Previous 1) 8.1
Virtual LOCKRATE1.REQUEST.2965 DECIMAL_2 Rate Lock Request - Lock Request Loan Amount (Previous 1) 8.1
Virtual LOCKRATE1.REQUEST.3035 DECIMAL_2 Rate Lock Request - Lock Request First Subordinate Amount (Previous 1) 8.1
Virtual LOCKRATE1.REQUEST.3036 DECIMAL_2 Rate Lock Request - Lock Request Second Subordinate Amount (Previous 1) 8.1
Virtual LOCKRATE1.REQUEST.3037 DECIMAL_2 Rate Lock Request - Lock Request Other Subordinate Amount (Previous 1) 8.1
Virtual LOCKRATE1.REQUEST.3038 DECIMAL_2 Rate Lock Request - Lock Request Purchase Price Amount (Previous 1) 8.1
Virtual LOCKRATE1.REQUEST.608 STRING 4 Rate Lock Request - Trans Details Amort Type (Previous 1) 8.1
Virtual LOCKRATE2.2953 STRING 4 Rate Lock - Lock Request Amort Type (Previous 2)
Virtual LOCKRATE2.2954 DECIMAL_3 Rate Lock - Lock Request Amort Type GPM Rate (Previous 2)
Virtual LOCKRATE2.2955 INTEGER Rate Lock - Lock Request Amort Type GPM Years (Previous 2)
Virtual LOCKRATE2.2956 STRING Rate Lock - Lock Request Amort Type ARM Descr (Previous 2)
Virtual LOCKRATE2.2957 STRING Rate Lock - Lock Request Amort Type Other Descr (Previous 2)
Virtual LOCKRATE2.2965 DECIMAL_2 Rate Lock - Lock Request Loan Amount (Previous 2)
Virtual LOCKRATE2.3035 DECIMAL_2 Rate Lock - Lock Request First Subordinate Amount (Previous 2)
Virtual LOCKRATE2.3036 DECIMAL_2 Rate Lock - Lock Request Second Subordinate Amount (Previous 2)
Virtual LOCKRATE2.3037 DECIMAL_2 Rate Lock - Lock Request Other Subordinate Amount (Previous 2)
Virtual LOCKRATE2.3038 DECIMAL_2 Rate Lock - Lock Request Purchase Price Amount (Previous 2)
Virtual LOCKRATE2.608 STRING 4 Rate Lock - Trans Details Amort Type (Previous 2)
Virtual LOCKRATE2.DENIED.2953 STRING 4 Rate Lock Denial - Lock Request Amort Type (Previous 2) 8.1
Virtual LOCKRATE2.DENIED.2954 DECIMAL_3 Rate Lock Denial - Lock Request Amort Type GPM Rate (Previous 2) 8.1
Virtual LOCKRATE2.DENIED.2955 INTEGER Rate Lock Denial - Lock Request Amort Type GPM Years (Previous 2) 8.1
Virtual LOCKRATE2.DENIED.2956 STRING Rate Lock Denial - Lock Request Amort Type ARM Descr (Previous 2) 8.1
Virtual LOCKRATE2.DENIED.2957 STRING Rate Lock Denial - Lock Request Amort Type Other Descr (Previous 2) 8.1
Virtual LOCKRATE2.DENIED.2965 DECIMAL_2 Rate Lock Denial - Lock Request Loan Amount (Previous 2) 8.1
Virtual LOCKRATE2.DENIED.3035 DECIMAL_2 Rate Lock Denial - Lock Request First Subordinate Amount (Previous 2) 8.1
Virtual LOCKRATE2.DENIED.3036 DECIMAL_2 Rate Lock Denial - Lock Request Second Subordinate Amount (Previous 2) 8.1
Virtual LOCKRATE2.DENIED.3037 DECIMAL_2 Rate Lock Denial - Lock Request Other Subordinate Amount (Previous 2) 8.1
Virtual LOCKRATE2.DENIED.3038 DECIMAL_2 Rate Lock Denial - Lock Request Purchase Price Amount (Previous 2) 8.1
Virtual LOCKRATE2.DENIED.608 STRING 4 Rate Lock Denial - Trans Details Amort Type (Previous 2) 8.1
Virtual LOCKRATE2.REQUEST.2953 STRING 4 Rate Lock Request - Lock Request Amort Type (Previous 2) 8.1
Virtual LOCKRATE2.REQUEST.2954 DECIMAL_3 Rate Lock Request - Lock Request Amort Type GPM Rate (Previous 2) 8.1
Virtual LOCKRATE2.REQUEST.2955 INTEGER Rate Lock Request - Lock Request Amort Type GPM Years (Previous 2) 8.1
Virtual LOCKRATE2.REQUEST.2956 STRING Rate Lock Request - Lock Request Amort Type ARM Descr (Previous 2) 8.1
Virtual LOCKRATE2.REQUEST.2957 STRING Rate Lock Request - Lock Request Amort Type Other Descr (Previous 2) 8.1
Virtual LOCKRATE2.REQUEST.2965 DECIMAL_2 Rate Lock Request - Lock Request Loan Amount (Previous 2) 8.1
Virtual LOCKRATE2.REQUEST.3035 DECIMAL_2 Rate Lock Request - Lock Request First Subordinate Amount (Previous 2) 8.1
Virtual LOCKRATE2.REQUEST.3036 DECIMAL_2 Rate Lock Request - Lock Request Second Subordinate Amount (Previous 2) 8.1
Virtual LOCKRATE2.REQUEST.3037 DECIMAL_2 Rate Lock Request - Lock Request Other Subordinate Amount (Previous 2) 8.1
Virtual LOCKRATE2.REQUEST.3038 DECIMAL_2 Rate Lock Request - Lock Request Purchase Price Amount (Previous 2) 8.1
Virtual LOCKRATE2.REQUEST.608 STRING 4 Rate Lock Request - Trans Details Amort Type (Previous 2) 8.1
Virtual LOCKRATE3.2953 STRING 4 Rate Request - Lock Request Amort Type (Most Recent)
Virtual LOCKRATE3.2954 DECIMAL_3 Rate Request - Lock Request Amort Type GPM Rate (Most Recent)
Virtual LOCKRATE3.2955 INTEGER Rate Request - Lock Request Amort Type GPM Years (Most Recent)
Virtual LOCKRATE3.2956 STRING Rate Request - Lock Request Amort Type ARM Descr (Most Recent)
Virtual LOCKRATE3.2957 STRING Rate Request - Lock Request Amort Type Other Descr (Most Recent)
Virtual LOCKRATE3.2965 DECIMAL_2 Rate Request - Lock Request Loan Amount (Most Recent)
Virtual LOCKRATE3.3035 DECIMAL_2 Rate Request - Lock Request First Subordinate Amount (Most Recent)
Virtual LOCKRATE3.3036 DECIMAL_2 Rate Request - Lock Request Second Subordinate Amount (Most Recent)
Virtual LOCKRATE3.3037 DECIMAL_2 Rate Request - Lock Request Other Subordinate Amount (Most Recent)
Virtual LOCKRATE3.3038 DECIMAL_2 Rate Request - Lock Request Purchase Price Amount (Most Recent)
Virtual LOCKRATE3.608 STRING 4 Rate Request - Trans Details Amort Type (Most Recent)
Standard LP130 STRING 3 Field LP130 - Negative Amortization 15.1
Standard MAX23K.X101 DECIMAL_2 FHA 203k - Final Base Mortgage Amount = Lesser of (Sum of Step 4B + Step 4E) or Step 4F 16.1
Standard MAX23K.X104 DECIMAL_2 FHA 203k - MIP LTV = 3E divided by 2F (ie Base Mortgage Amount divided by After Improved Value) 16.1
Standard MAX23K.X115 DECIMAL_2 FHA 203k - Rehabilitation Escrow Amount Balance (for Future Draws) = 6A minus 6B 16.1
Standard MAX23K.X49 DECIMAL_2 FHA 203k E1 Max Mortgage Amount
Standard MAX23K.X90 DECIMAL_2 FHA 203k - Base Mortgage Amount (Lesser of 3C or 3D) 16.1
Standard MAX23K.X96 DECIMAL_2 FHA 203k - Initial Base Mortgage Amount + EEM Improvement Amount 16.1
Standard MAX23K.X99 DECIMAL_2 FHA 203k - Lesser of (Step 4C or Step 4D) = Maximum Financeable Solar/Wind Energy Amount 16.1
Standard MCAWPUR.X27 DECIMAL_2 FHA MCAW Max County Loan Amount
Standard MCAWPUR.X29 DECIMAL_2 FHA MCAW Repairs or Improvement Amount 9.1
Standard NEWHUD.X1005 DECIMAL_2 Component Fee of Line 1101 Additional Line 1101a Whole POC Amount
Standard NEWHUD.X1006 DECIMAL_2 Component Fee of Line 1101 Additional Line 1101b Whole POC Amount
Standard NEWHUD.X1007 DECIMAL_2 Component Fee of Line 1101 Additional Line 1101c Whole POC Amount
Standard NEWHUD.X1008 DECIMAL_2 Component Fee of Line 1101 Additional Line 1101d Whole POC Amount
Standard NEWHUD.X1009 DECIMAL_2 Component Fee of Line 1101 Additional Line 1101e Whole POC Amount
Standard NEWHUD.X1010 DECIMAL_2 Component Fee of Line 1101 Additional Line 1101f Whole POC Amount
Standard NEWHUD.X1142 DECIMAL_2 LO Compensation - Lender Compensation Credit Amount Line 1
Standard NEWHUD.X1144 DECIMAL_2 LO Compensation - Lender Compensation Credit Amount Line 2
Standard NEWHUD.X1146 DECIMAL_2 LO Compensation - Fee Line 802 User Defined Fee 1 Amount
Standard NEWHUD.X1148 DECIMAL_2 LO Compensation - Fee Line 802 User Defined Fee 2 Amount
Standard NEWHUD.X1151 DECIMAL_2 LO Compensation - Borrower Paid Discount Point Amount Line 1
Standard NEWHUD.X1152 DECIMAL_2 LO Compensation - Seller Paid Discount Point Amount Line 1
Standard NEWHUD.X1155 DECIMAL_2 LO Compensation - Borrower Paid Discount Point Amount Line 2
Standard NEWHUD.X1156 DECIMAL_2 LO Compensation - Seller Paid Discount Point Amount Line 2
Standard NEWHUD.X1159 DECIMAL_2 LO Compensation - Borrower Paid Discount Point Amount Line 3
Standard NEWHUD.X1160 DECIMAL_2 LO Compensation - Seller Paid Discount Point Amount Line 3
Standard NEWHUD.X1163 DECIMAL_2 LO Compensation - Borrower Paid Discount Point Amount Line 4
Standard NEWHUD.X1164 DECIMAL_2 LO Compensation - Seller Paid Discount Point Amount Line 4
Standard NEWHUD.X1165 DECIMAL_2 LO Compensation - TotalBorrower Paid Discount Point Amount Line 4
Standard NEWHUD.X1166 DECIMAL_2 LO Compensation - Total Seller Paid Discount Point Amount Line 4
Standard NEWHUD.X1192 DECIMAL_2 Fees Line 802 LO Compensation Tool - Whole POC Amount 1
Standard NEWHUD.X1194 DECIMAL_2 Fees Line 802 LO Compensation Tool - Whole POC Amount 2
Standard NEWHUD.X1196 DECIMAL_2 Fees Line 802 LO Compensation Tool - Whole POC Amount 3
Standard NEWHUD.X1198 DECIMAL_2 Fees Line 802 LO Compensation Tool - Whole POC Amount 4
Standard NEWHUD.X1201 DECIMAL_2 LO Compensation - GFE -Lender Compensation Credit Amount Line 1
Standard NEWHUD.X1203 DECIMAL_2 LO Compensation - GFE -Lender Compensation Credit Amount Line 2
Standard NEWHUD.X1204 DECIMAL_2 LO Compensation - GFE -Fee Line 802 User Defined Fee 1 Amount
Standard NEWHUD.X1205 DECIMAL_2 LO Compensation - GFE -Fee Line 802 User Defined Fee 2 Amount
Standard NEWHUD.X1208 DECIMAL_2 LO Compensation - GFE -Borrower Paid Discount Point Amount Line 1
Standard NEWHUD.X1210 DECIMAL_2 LO Compensation - GFE -Borrower Paid Discount Point Amount Line 2
Standard NEWHUD.X1212 DECIMAL_2 LO Compensation - GFE -Borrower Paid Discount Point Amount Line 3
Standard NEWHUD.X1214 DECIMAL_2 LO Compensation - GFE -Borrower Paid Discount Point Amount Line 4
Standard NEWHUD.X1215 DECIMAL_2 LO Compensation - GFE -Total Borrower Paid Discount Point Amount
Standard NEWHUD.X1225 DECIMAL_2 LO Compensation - Lender Compensation Credit Additional Amount Line 1
Standard NEWHUD.X1226 DECIMAL_2 LO Compensation - Lender Compensation Credit Additional Amount Line 2
Standard NEWHUD.X1227 DECIMAL_2 LO Compensation - Discount Point Additional Amount Line 1
Standard NEWHUD.X1228 DECIMAL_2 LO Compensation - GFE - Lender Compensation Credit Additional Amount Line 1
Standard NEWHUD.X1229 DECIMAL_2 LO Compensation - GFE - Lender Compensation Credit Additional Amount Line 2
Standard NEWHUD.X1230 DECIMAL_2 LO Compensation - GFE - GFE -Discount Point Additional Amount Line 2
Standard NEWHUD.X1293 DECIMAL_2 Fees Line 818 Borr Paid Amount 8.1
Standard NEWHUD.X1301 DECIMAL_2 Fees Line 819 Borr Paid Amount 8.1
Standard NEWHUD.X1309 DECIMAL_2 Fees Line 820 Borr Paid Amount 8.1
Standard NEWHUD.X1317 DECIMAL_2 Fees Line 821 Borr Paid Amount 8.1
Standard NEWHUD.X1325 DECIMAL_2 Fees Line 822 Borr Paid Amount 8.1
Standard NEWHUD.X1333 DECIMAL_2 Fees Line 823 Borr Paid Amount 8.1
Standard NEWHUD.X1341 DECIMAL_2 Fees Line 824 Borr Paid Amount 8.1
Standard NEWHUD.X1349 DECIMAL_2 Fees Line 825 Borr Paid Amount 8.1
Standard NEWHUD.X1357 DECIMAL_2 Fees Line 826 Borr Paid Amount 8.1
Standard NEWHUD.X1365 DECIMAL_2 Fees Line 827 Borr Paid Amount 8.1
Standard NEWHUD.X1373 DECIMAL_2 Fees Line 828 Borr Paid Amount 8.1
Standard NEWHUD.X1381 DECIMAL_2 Fees Line 829 Borr Paid Amount 8.1
Standard NEWHUD.X1389 DECIMAL_2 Fees Line 830 Borr Paid Amount 8.1
Standard NEWHUD.X1397 DECIMAL_2 Fees Line 831 Borr Paid Amount 8.1
Standard NEWHUD.X1405 DECIMAL_2 Fees Line 832 Borr Paid Amount 8.1
Standard NEWHUD.X1413 DECIMAL_2 Fees Line 833 Borr Paid Amount 8.1
Standard NEWHUD.X1433 DECIMAL_2 Fee Line 801 Whole POC Amount 11
Standard NEWHUD.X1434 DECIMAL_2 Fee Line 801 Whole POC Amount 12
Standard NEWHUD.X1435 DECIMAL_2 Fee Line 801 Whole POC Amount 13
Standard NEWHUD.X1436 DECIMAL_2 Fee Line 801 Whole POC Amount 14
Standard NEWHUD.X1437 DECIMAL_2 Fee Line 801 Whole POC Amount 15
Standard NEWHUD.X1438 DECIMAL_2 Fee Line 801 Whole POC Amount 16
Standard NEWHUD.X1439 DECIMAL_2 Fee Line 801 Whole POC Amount 17
Standard NEWHUD.X1440 DECIMAL_2 Fee Line 818 Whole POC Amount
Standard NEWHUD.X1441 DECIMAL_2 Fee Line 819 Whole POC Amount
Standard NEWHUD.X1442 DECIMAL_2 Fee Line 820 Whole POC Amount
Standard NEWHUD.X1443 DECIMAL_2 Fee Line 821 Whole POC Amount
Standard NEWHUD.X1444 DECIMAL_2 Fee Line 822 Whole POC Amount
Standard NEWHUD.X1445 DECIMAL_2 Fee Line 823 Whole POC Amount
Standard NEWHUD.X1446 DECIMAL_2 Fee Line 824 Whole POC Amount
Standard NEWHUD.X1447 DECIMAL_2 Fee Line 825 Whole POC Amount
Standard NEWHUD.X1448 DECIMAL_2 Fee Line 826 Whole POC Amount
Standard NEWHUD.X1449 DECIMAL_2 Fee Line 827 Whole POC Amount
Standard NEWHUD.X1450 DECIMAL_2 Fee Line 828 Whole POC Amount
Standard NEWHUD.X1451 DECIMAL_2 Fee Line 829 Whole POC Amount
Standard NEWHUD.X1452 DECIMAL_2 Fee Line 830 Whole POC Amount
Standard NEWHUD.X1453 DECIMAL_2 Fee Line 831 Whole POC Amount
Standard NEWHUD.X1454 DECIMAL_2 Fee Line 832 Whole POC Amount
Standard NEWHUD.X1455 DECIMAL_2 Fee Line 833 Whole POC Amount
Standard NEWHUD.X1456 STRING 3 Fee Line 801 Whole POC Amount Paid By 11
Standard NEWHUD.X1457 STRING 3 Fee Line 801 Whole POC Amount Paid By 12
Standard NEWHUD.X1458 STRING 3 Fee Line 801 Whole POC Amount Paid By 13
Standard NEWHUD.X1459 STRING 3 Fee Line 801 Whole POC Amount Paid By 14
Standard NEWHUD.X1460 STRING 3 Fee Line 801 Whole POC Amount Paid By 15
Standard NEWHUD.X1461 STRING 3 Fee Line 801 Whole POC Amount Paid By 16
Standard NEWHUD.X1462 STRING 3 Fee Line 801 Whole POC Amount Paid By 17
Standard NEWHUD.X1463 STRING 3 Fee Line 818 Whole POC Amount Paid By
Standard NEWHUD.X1464 STRING 3 Fee Line 819 Whole POC Amount Paid By
Standard NEWHUD.X1465 STRING 3 Fee Line 820 Whole POC Amount Paid By
Standard NEWHUD.X1466 STRING 3 Fee Line 821 Whole POC Amount Paid By
Standard NEWHUD.X1467 STRING 3 Fee Line 822 Whole POC Amount Paid By
Standard NEWHUD.X1468 STRING 3 Fee Line 823 Whole POC Amount Paid By
Standard NEWHUD.X1469 STRING 3 Fee Line 824 Whole POC Amount Paid By
Standard NEWHUD.X1470 STRING 3 Fee Line 825 Whole POC Amount Paid By
Standard NEWHUD.X1471 STRING 3 Fee Line 826 Whole POC Amount Paid By
Standard NEWHUD.X1472 STRING 3 Fee Line 827 Whole POC Amount Paid By
Standard NEWHUD.X1473 STRING 3 Fee Line 828 Whole POC Amount Paid By
Standard NEWHUD.X1474 STRING 3 Fee Line 829 Whole POC Amount Paid By
Standard NEWHUD.X1475 STRING 3 Fee Line 830 Whole POC Amount Paid By
Standard NEWHUD.X1476 STRING 3 Fee Line 831 Whole POC Amount Paid By
Standard NEWHUD.X1477 STRING 3 Fee Line 832 Whole POC Amount Paid By
Standard NEWHUD.X1478 STRING 3 Fee Line 833 Whole POC Amount Paid By
Standard NEWHUD.X1588 DECIMAL_2 Fees Line 911 Borr Paid Amount
Standard NEWHUD.X1596 DECIMAL_2 Fees Line 912 Borr Paid Amount
Standard NEWHUD.X1604 DECIMAL_2 Fees Line 1115 Borr Paid Amount
Standard NEWHUD.X1612 DECIMAL_2 Fees Line 1116 Borr Paid Amount
Standard NEWHUD.X1620 DECIMAL_2 Fees Line 1209 Borr Paid Amount
Standard NEWHUD.X1627 DECIMAL_2 Fees Line 1210 Borr Paid Amount
Standard NEWHUD.X1634 DECIMAL_2 Fees Line 1312 Borr Paid Amount
Standard NEWHUD.X1642 DECIMAL_2 Fees Line 1313 Borr Paid Amount
Standard NEWHUD.X1650 DECIMAL_2 Fees Line 1314 Borr Paid Amount
Standard NEWHUD.X1658 DECIMAL_2 Fees Line 1315 Borr Paid Amount
Standard NEWHUD.X1664 DECIMAL_2 Fee Line 911 Whole POC Amount
Standard NEWHUD.X1665 DECIMAL_2 Fee Line 912 Whole POC Amount
Standard NEWHUD.X1666 DECIMAL_2 Fee Line 1115 Whole POC Amount
Standard NEWHUD.X1667 DECIMAL_2 Fee Line 1116 Whole POC Amount
Standard NEWHUD.X1668 DECIMAL_2 Fee Line 1209 Whole POC Amount
Standard NEWHUD.X1669 DECIMAL_2 Fee Line 1210 Whole POC Amount
Standard NEWHUD.X1670 DECIMAL_2 Fee Line 1312 Whole POC Amount
Standard NEWHUD.X1671 DECIMAL_2 Fee Line 1313 Whole POC Amount
Standard NEWHUD.X1672 DECIMAL_2 Fee Line 1314 Whole POC Amount
Standard NEWHUD.X1673 DECIMAL_2 Fee Line 1315 Whole POC Amount
Standard NEWHUD.X1674 STRING 3 Fee Line 911 Whole POC Amount Paid By
Standard NEWHUD.X1675 STRING 3 Fee Line 912 Whole POC Amount Paid By
Standard NEWHUD.X1676 STRING 3 Fee Line 1115 Whole POC Amount Paid By
Standard NEWHUD.X1677 STRING 3 Fee Line 1116 Whole POC Amount Paid By
Standard NEWHUD.X1678 STRING 3 Fee Line 1209 Whole POC Amount Paid By
Standard NEWHUD.X1679 STRING 3 Fee Line 1210 Whole POC Amount Paid By
Standard NEWHUD.X1680 STRING 3 Fee Line 1312 Whole POC Amount Paid By
Standard NEWHUD.X1681 STRING 3 Fee Line 1313 Whole POC Amount Paid By
Standard NEWHUD.X1682 STRING 3 Fee Line 1314 Whole POC Amount Paid By
Standard NEWHUD.X1683 STRING 3 Fee Line 1315 Whole POC Amount Paid By
Standard NEWHUD.X1713 DECIMAL_2 Fees Section 1000 Seller Paid Total Amount
Standard NEWHUD.X1719 DECIMAL_2 Fees Section 1000 Borrower Paid Total Amount 9.1
Standard NEWHUD.X1722 DECIMAL_2 Fees Initial Discount Point Additional Amount 9.1
Standard NEWHUD.X1723 DECIMAL_2 Fees Borrower Paid Initial Discount Point Amount 9.1
Standard NEWHUD.X1724 DECIMAL_2 Owner's Title Insurance Paid To Affiliate Amount 9.1
Standard NEWHUD.X1725 DECIMAL_2 Lender's Title Insurance Paid To Affiliate Amount 9.1
Standard NEWHUD.X224 DECIMAL_2 Fees Line 801 Broker Compensation Rate Additional Amount
Standard NEWHUD.X231 DECIMAL_2 Fees Line 801 Broker Compensation Whole POC Amount
Standard NEWHUD.X247 DECIMAL_2 Fees Line 801 HUD GFE Broker Compensation Additional Amount
Standard NEWHUD.X4 DECIMAL_2 Initial Loan Amount
Standard NEWHUD.X718 DECIMAL_2 GFE Credit Amount
Standard NEWHUD.X821 DECIMAL_2 Fee Line 801 Whole POC Amount 1
Standard NEWHUD.X822 DECIMAL_2 Fee Line 801 Whole POC Amount 2
Standard NEWHUD.X823 DECIMAL_2 Fee Line 801 Whole POC Amount 3
Standard NEWHUD.X824 DECIMAL_2 Fee Line 801 Whole POC Amount 4
Standard NEWHUD.X825 DECIMAL_2 Fee Line 801 Whole POC Amount 5
Standard NEWHUD.X826 DECIMAL_2 Fee Line 801 Whole POC Amount 6
Standard NEWHUD.X827 DECIMAL_2 Fee Line 801 Whole POC Amount 7
Standard NEWHUD.X828 DECIMAL_2 Fee Line 801 Whole POC Amount 8
Standard NEWHUD.X829 DECIMAL_2 Fee Line 801 Whole POC Amount 9
Standard NEWHUD.X830 DECIMAL_2 Fee Line 801 Whole POC Amount 10
Standard NEWHUD.X831 DECIMAL_2 Fee Line 802 Whole POC Amount
Standard NEWHUD.X832 DECIMAL_2 Fee Line 804 Whole POC Amount
Standard NEWHUD.X833 DECIMAL_2 Fee Line 805 Whole POC Amount
Standard NEWHUD.X834 DECIMAL_2 Fee Line 806 Whole POC Amount
Standard NEWHUD.X835 DECIMAL_2 Fee Line 807 Whole POC Amount
Standard NEWHUD.X836 DECIMAL_2 Fee Line 808 Whole POC Amount